Wetterdaten: Freitag, 21.12.2018
Datum Zeit Temp. Aussen Temp. o. S. +5cm Feuchte Auss Luftdruck Regen Sonnenschein Regendauer Solar Windben Empfang
21.12.2018 00:00 7,8 C 7,2 C 6,1 C 92 % 1009,9 hPa 0,0 l/m 0 min 0 min 0 W/m 19,3 km/h (3 Bft) 97,87 %
21.12.2018 00:02 7,8 C 7,2 C 6,1 C 92 % 1009,9 hPa 0,0 l/m 0 min 0 min 0 W/m 9,7 km/h (2 Bft) 94,29 %
21.12.2018 00:04 7,8 C 7,2 C 6,1 C 92 % 1009,8 hPa 0,0 l/m 0 min 0 min 0 W/m 16,1 km/h (3 Bft) 95,74 %
21.12.2018 00:07 7,8 C 7,2 C 6,1 C 92 % 1009,8 hPa 0,0 l/m 0 min 0 min 0 W/m 19,3 km/h (3 Bft) 97,18 %
21.12.2018 00:08 7,8 C 7,2 C 6,1 C 92 % 1009,8 hPa 0,0 l/m 0 min 0 min 0 W/m 16,1 km/h (3 Bft) 95,65 %
21.12.2018 00:10 7,8 C 7,2 C 6,1 C 91 % 1009,7 hPa 0,0 l/m 0 min 0 min 0 W/m 16,1 km/h (3 Bft) 95,74 %
21.12.2018 00:12 7,8 C 7,8 C 6,7 C 91 % 1009,8 hPa 0,0 l/m 0 min 0 min 0 W/m 22,5 km/h (4 Bft) 95,74 %
21.12.2018 00:14 7,9 C 7,2 C 6,7 C 91 % 1009,7 hPa 0,0 l/m 0 min 0 min 0 W/m 16,1 km/h (3 Bft) 100,00 %
21.12.2018 00:16 7,9 C 7,8 C 6,7 C 91 % 1009,8 hPa 0,0 l/m 0 min 0 min 0 W/m 25,7 km/h (4 Bft) 100,00 %
21.12.2018 00:18 7,9 C 7,8 C 6,7 C 91 % 1009,7 hPa 0,0 l/m 0 min 0 min 0 W/m 25,7 km/h (4 Bft) 95,74 %
21.12.2018 00:20 7,9 C 7,8 C 6,7 C 91 % 1009,7 hPa 0,0 l/m 0 min 0 min 0 W/m 16,1 km/h (3 Bft) 97,87 %
21.12.2018 00:22 7,9 C 7,8 C 6,7 C 91 % 1009,6 hPa 0,0 l/m 0 min 0 min 0 W/m 22,5 km/h (4 Bft) 97,87 %
21.12.2018 00:24 7,9 C 7,8 C 6,7 C 91 % 1009,7 hPa 0,0 l/m 0 min 0 min 0 W/m 25,7 km/h (4 Bft) 97,83 %
21.12.2018 00:26 7,9 C 7,8 C 6,7 C 91 % 1009,6 hPa 0,0 l/m 0 min 0 min 0 W/m 19,3 km/h (3 Bft) 97,87 %
21.12.2018 00:28 7,9 C 7,8 C 6,7 C 90 % 1009,5 hPa 0,0 l/m 0 min 0 min 0 W/m 16,1 km/h (3 Bft) 95,74 %
21.12.2018 00:30 8,0 C 7,8 C 6,7 C 90 % 1009,6 hPa 0,0 l/m 0 min 0 min 0 W/m 16,1 km/h (3 Bft) 97,87 %
21.12.2018 00:32 8,0 C 7,2 C 6,7 C 90 % 1009,5 hPa 0,0 l/m 0 min 0 min 0 W/m 6,4 km/h (2 Bft) 97,87 %
21.12.2018 00:34 8,0 C 7,8 C 6,7 C 90 % 1009,6 hPa 0,0 l/m 0 min 0 min 0 W/m 29,0 km/h (5 Bft) 95,74 %
21.12.2018 00:36 8,0 C 7,8 C 6,7 C 90 % 1009,5 hPa 0,0 l/m 0 min 0 min 0 W/m 29,0 km/h (5 Bft) 97,83 %
21.12.2018 00:38 8,0 C 7,8 C 6,7 C 90 % 1009,5 hPa 0,0 l/m 0 min 0 min 0 W/m 25,7 km/h (4 Bft) 98,31 %
21.12.2018 00:40 8,0 C 7,8 C 6,7 C 90 % 1009,5 hPa 0,0 l/m 0 min 0 min 0 W/m 19,3 km/h (3 Bft) 97,14 %
21.12.2018 00:42 8,0 C 7,8 C 6,7 C 90 % 1009,4 hPa 0,0 l/m 0 min 0 min 0 W/m 32,2 km/h (5 Bft) 95,74 %
21.12.2018 00:44 8,1 C 7,8 C 6,7 C 89 % 1009,5 hPa 0,0 l/m 0 min 0 min 0 W/m 22,5 km/h (4 Bft) 97,87 %
21.12.2018 00:46 8,1 C 7,8 C 6,7 C 89 % 1009,6 hPa 0,0 l/m 0 min 0 min 0 W/m 41,8 km/h (6 Bft) 95,74 %
21.12.2018 00:48 8,1 C 7,8 C 7,2 C 89 % 1009,6 hPa 0,0 l/m 0 min 0 min 0 W/m 35,4 km/h (5 Bft) 97,83 %
21.12.2018 00:50 8,1 C 7,8 C 7,2 C 89 % 1009,5 hPa 0,0 l/m 0 min 0 min 0 W/m 38,6 km/h (5 Bft) 97,87 %
21.12.2018 00:52 8,1 C 7,8 C 6,7 C 89 % 1009,5 hPa 0,0 l/m 0 min 0 min 0 W/m 16,1 km/h (3 Bft) 97,87 %
21.12.2018 00:54 8,1 C 7,8 C 7,2 C 89 % 1009,4 hPa 0,0 l/m 0 min 0 min 0 W/m 16,1 km/h (3 Bft) 97,87 %
21.12.2018 00:56 8,1 C 7,8 C 7,2 C 89 % 1009,5 hPa 0,0 l/m 0 min 0 min 0 W/m 19,3 km/h (3 Bft) 95,74 %
21.12.2018 00:58 8,1 C 7,8 C 7,2 C 89 % 1009,4 hPa 0,0 l/m 0 min 0 min 0 W/m 22,5 km/h (4 Bft) 97,87 %
21.12.2018 01:00 8,1 C 7,8 C 6,7 C 89 % 1009,5 hPa 0,0 l/m 0 min 0 min 0 W/m 19,3 km/h (3 Bft) 97,83 %
21.12.2018 01:02 8,2 C 7,8 C 6,7 C 89 % 1009,5 hPa 0,0 l/m 0 min 0 min 0 W/m 19,3 km/h (3 Bft) 95,74 %
21.12.2018 01:04 8,2 C 7,8 C 6,7 C 88 % 1009,5 hPa 0,0 l/m 0 min 0 min 0 W/m 16,1 km/h (3 Bft) 97,87 %
21.12.2018 01:06 8,2 C 7,8 C 7,2 C 88 % 1009,5 hPa 0,0 l/m 0 min 0 min 0 W/m 25,7 km/h (4 Bft) 100,00 %
21.12.2018 01:08 8,2 C 7,8 C 7,2 C 88 % 1009,4 hPa 0,0 l/m 0 min 0 min 0 W/m 35,4 km/h (5 Bft) 100,00 %
21.12.2018 01:10 8,2 C 7,8 C 6,7 C 88 % 1009,4 hPa 0,0 l/m 0 min 0 min 0 W/m 19,3 km/h (3 Bft) 100,00 %
21.12.2018 01:12 8,2 C 7,8 C 7,2 C 88 % 1009,3 hPa 0,0 l/m 0 min 0 min 0 W/m 22,5 km/h (4 Bft) 100,00 %
21.12.2018 01:14 8,2 C 7,8 C 7,2 C 88 % 1009,3 hPa 0,0 l/m 0 min 0 min 0 W/m 29,0 km/h (5 Bft) 97,87 %
21.12.2018 01:16 8,2 C 7,8 C 6,7 C 88 % 1009,2 hPa 0,0 l/m 0 min 0 min 0 W/m 19,3 km/h (3 Bft) 100,00 %
21.12.2018 01:18 8,2 C 7,8 C 6,7 C 88 % 1009,2 hPa 0,0 l/m 0 min 0 min 0 W/m 19,3 km/h (3 Bft) 97,87 %
21.12.2018 01:20 8,2 C 7,8 C 6,7 C 88 % 1009,1 hPa 0,0 l/m 0 min 0 min 0 W/m 19,3 km/h (3 Bft) 97,87 %
21.12.2018 01:22 8,2 C 7,8 C 6,7 C 88 % 1009,1 hPa 0,0 l/m 0 min 0 min 0 W/m 29,0 km/h (5 Bft) 97,87 %
21.12.2018 01:24 8,2 C 7,8 C 6,7 C 88 % 1009,1 hPa 0,0 l/m 0 min 0 min 0 W/m 22,5 km/h (4 Bft) 95,65 %
21.12.2018 01:26 8,2 C 7,8 C 6,7 C 88 % 1009,1 hPa 0,0 l/m 0 min 0 min 0 W/m 22,5 km/h (4 Bft) 97,87 %
21.12.2018 01:28 8,2 C 7,8 C 6,7 C 88 % 1009,1 hPa 0,0 l/m 0 min 0 min 0 W/m 19,3 km/h (3 Bft) 97,87 %
21.12.2018 01:30 8,2 C 7,8 C 7,2 C 88 % 1009,1 hPa 0,0 l/m 0 min 0 min 0 W/m 29,0 km/h (5 Bft) 97,87 %
21.12.2018 01:32 8,2 C 7,8 C 7,2 C 88 % 1009,0 hPa 0,0 l/m 0 min 0 min 0 W/m 25,7 km/h (4 Bft) 97,87 %
21.12.2018 01:34 8,2 C 7,8 C 7,2 C 88 % 1009,1 hPa 0,0 l/m 0 min 0 min 0 W/m 25,7 km/h (4 Bft) 97,87 %
21.12.2018 01:36 8,2 C 7,8 C 7,2 C 88 % 1008,9 hPa 0,0 l/m 0 min 0 min 0 W/m 12,9 km/h (3 Bft) 95,65 %
21.12.2018 01:38 8,2 C 7,8 C 7,2 C 88 % 1008,9 hPa 0,0 l/m 0 min 0 min 0 W/m 16,1 km/h (3 Bft) 97,87 %
21.12.2018 01:40 8,2 C 7,8 C 7,2 C 88 % 1008,8 hPa 0,0 l/m 0 min 0 min 0 W/m 16,1 km/h (3 Bft) 95,74 %
21.12.2018 01:42 8,2 C 7,8 C 7,2 C 88 % 1008,9 hPa 0,0 l/m 0 min 0 min 0 W/m 16,1 km/h (3 Bft) 97,87 %
21.12.2018 01:44 8,2 C 7,8 C 7,2 C 88 % 1008,9 hPa 0,0 l/m 0 min 0 min 0 W/m 32,2 km/h (5 Bft) 97,87 %
21.12.2018 01:46 8,2 C 7,8 C 7,2 C 88 % 1008,9 hPa 0,0 l/m 0 min 0 min 0 W/m 22,5 km/h (4 Bft) 97,87 %
21.12.2018 01:48 8,2 C 7,8 C 7,2 C 88 % 1008,9 hPa 0,0 l/m 0 min 0 min 0 W/m 22,5 km/h (4 Bft) 97,83 %
21.12.2018 01:50 8,2 C 7,8 C 7,2 C 88 % 1008,8 hPa 0,0 l/m 0 min 0 min 0 W/m 22,5 km/h (4 Bft) 97,87 %
21.12.2018 01:52 8,2 C 7,8 C 7,2 C 88 % 1008,8 hPa 0,0 l/m 0 min 0 min 0 W/m 22,5 km/h (4 Bft) 97,87 %
21.12.2018 01:54 8,2 C 7,8 C 7,2 C 88 % 1008,8 hPa 0,0 l/m 0 min 0 min 0 W/m 12,9 km/h (3 Bft) 97,87 %
21.12.2018 01:56 8,2 C 7,8 C 7,2 C 88 % 1008,8 hPa 0,0 l/m 0 min 0 min 0 W/m 29,0 km/h (5 Bft) 97,87 %
21.12.2018 01:58 8,2 C 7,8 C 7,2 C 88 % 1008,9 hPa 0,0 l/m 0 min 0 min 0 W/m 16,1 km/h (3 Bft) 93,48 %
21.12.2018 02:00 8,2 C 7,8 C 6,7 C 87 % 1008,8 hPa 0,0 l/m 0 min 0 min 0 W/m 16,1 km/h (3 Bft) 97,87 %
21.12.2018 02:02 8,2 C 7,8 C 6,7 C 87 % 1008,9 hPa 0,0 l/m 0 min 0 min 0 W/m 25,7 km/h (4 Bft) 95,74 %
21.12.2018 02:04 8,2 C 7,8 C 7,2 C 87 % 1008,8 hPa 0,0 l/m 0 min 0 min 0 W/m 9,7 km/h (2 Bft) 100,00 %
21.12.2018 02:06 8,2 C 7,8 C 6,7 C 87 % 1008,8 hPa 0,0 l/m 0 min 0 min 0 W/m 22,5 km/h (4 Bft) 97,87 %
21.12.2018 02:08 8,2 C 7,8 C 7,2 C 87 % 1008,8 hPa 0,0 l/m 0 min 0 min 0 W/m 19,3 km/h (3 Bft) 100,00 %
21.12.2018 02:10 8,2 C 7,8 C 7,2 C 87 % 1008,7 hPa 0,0 l/m 0 min 0 min 0 W/m 25,7 km/h (4 Bft) 100,00 %
21.12.2018 02:12 8,2 C 7,8 C 7,2 C 87 % 1008,6 hPa 0,0 l/m 0 min 0 min 0 W/m 25,7 km/h (4 Bft) 100,00 %
21.12.2018 02:14 8,2 C 7,8 C 7,2 C 87 % 1008,5 hPa 0,0 l/m 0 min 0 min 0 W/m 25,7 km/h (4 Bft) 100,00 %
21.12.2018 02:16 8,2 C 7,8 C 7,2 C 87 % 1008,5 hPa 0,0 l/m 0 min 0 min 0 W/m 19,3 km/h (3 Bft) 100,00 %
21.12.2018 02:18 8,3 C 7,8 C 7,2 C 87 % 1008,6 hPa 0,0 l/m 0 min 0 min 0 W/m 22,5 km/h (4 Bft) 100,00 %
21.12.2018 02:20 8,3 C 7,8 C 7,2 C 87 % 1008,6 hPa 0,0 l/m 0 min 0 min 0 W/m 29,0 km/h (5 Bft) 100,00 %
21.12.2018 02:22 8,3 C 7,8 C 7,2 C 87 % 1008,5 hPa 0,0 l/m 0 min 0 min 0 W/m 22,5 km/h (4 Bft) 97,83 %
21.12.2018 02:24 8,3 C 7,8 C 7,2 C 87 % 1008,5 hPa 0,0 l/m 0 min 0 min 0 W/m 25,7 km/h (4 Bft) 100,00 %
21.12.2018 02:26 8,3 C 7,8 C 7,2 C 87 % 1008,5 hPa 0,0 l/m 0 min 0 min 0 W/m 19,3 km/h (3 Bft) 100,00 %
21.12.2018 02:28 8,3 C 7,8 C 7,2 C 87 % 1008,6 hPa 0,0 l/m 0 min 0 min 0 W/m 19,3 km/h (3 Bft) 100,00 %
21.12.2018 02:30 8,3 C 7,8 C 7,2 C 87 % 1008,5 hPa 0,0 l/m 0 min 0 min 0 W/m 25,7 km/h (4 Bft) 100,00 %
21.12.2018 02:32 8,3 C 7,8 C 7,2 C 87 % 1008,5 hPa 0,0 l/m 0 min 0 min 0 W/m 25,7 km/h (4 Bft) 100,00 %
21.12.2018 02:34 8,3 C 7,8 C 7,2 C 87 % 1008,4 hPa 0,0 l/m 0 min 0 min 0 W/m 16,1 km/h (3 Bft) 100,00 %
21.12.2018 02:36 8,3 C 7,8 C 7,2 C 87 % 1008,4 hPa 0,0 l/m 0 min 0 min 0 W/m 19,3 km/h (3 Bft) 97,87 %
21.12.2018 02:38 8,3 C 7,8 C 7,2 C 87 % 1008,4 hPa 0,0 l/m 0 min 0 min 0 W/m 19,3 km/h (3 Bft) 97,87 %
21.12.2018 02:40 8,3 C 7,8 C 7,2 C 86 % 1008,4 hPa 0,0 l/m 0 min 0 min 0 W/m 22,5 km/h (4 Bft) 97,87 %
21.12.2018 02:42 8,3 C 7,8 C 7,2 C 86 % 1008,3 hPa 0,0 l/m 0 min 0 min 0 W/m 25,7 km/h (4 Bft) 97,87 %
21.12.2018 02:44 8,3 C 7,8 C 7,2 C 86 % 1008,3 hPa 0,0 l/m 0 min 0 min 0 W/m 16,1 km/h (3 Bft) 97,83 %
21.12.2018 02:46 8,4 C 7,8 C 7,2 C 86 % 1008,3 hPa 0,0 l/m 0 min 0 min 0 W/m 25,7 km/h (4 Bft) 95,74 %
21.12.2018 02:48 8,4 C 7,8 C 7,2 C 86 % 1008,3 hPa 0,0 l/m 0 min 0 min 0 W/m 22,5 km/h (4 Bft) 93,62 %
21.12.2018 02:50 8,4 C 7,8 C 7,2 C 86 % 1008,3 hPa 0,0 l/m 0 min 0 min 0 W/m 22,5 km/h (4 Bft) 93,62 %
21.12.2018 02:52 8,4 C 7,8 C 7,2 C 86 % 1008,2 hPa 0,0 l/m 0 min 0 min 0 W/m 25,7 km/h (4 Bft) 97,87 %
21.12.2018 02:54 8,4 C 7,8 C 7,2 C 86 % 1008,2 hPa 0,0 l/m 0 min 0 min 0 W/m 22,5 km/h (4 Bft) 95,74 %
21.12.2018 02:56 8,4 C 7,8 C 7,2 C 86 % 1008,2 hPa 0,0 l/m 0 min 0 min 0 W/m 25,7 km/h (4 Bft) 93,48 %
21.12.2018 02:58 8,4 C 7,8 C 7,2 C 86 % 1008,2 hPa 0,0 l/m 0 min 0 min 0 W/m 32,2 km/h (5 Bft) 95,74 %
21.12.2018 03:00 8,4 C 7,8 C 7,2 C 86 % 1008,1 hPa 0,0 l/m 0 min 0 min 0 W/m 25,7 km/h (4 Bft) 97,87 %
21.12.2018 03:02 8,4 C 7,8 C 7,2 C 86 % 1008,1 hPa 0,0 l/m 0 min 0 min 0 W/m 22,5 km/h (4 Bft) 97,87 %
21.12.2018 03:04 8,4 C 7,8 C 7,2 C 86 % 1008,0 hPa 0,0 l/m 0 min 0 min 0 W/m 22,5 km/h (4 Bft) 95,74 %
21.12.2018 03:06 8,4 C 7,8 C 7,2 C 86 % 1007,9 hPa 0,0 l/m 0 min 0 min 0 W/m 22,5 km/h (4 Bft) 95,74 %
21.12.2018 03:08 8,4 C 7,8 C 7,2 C 86 % 1007,8 hPa 0,0 l/m 0 min 0 min 0 W/m 16,1 km/h (3 Bft) 91,30 %
21.12.2018 03:10 8,4 C 7,8 C 7,2 C 86 % 1007,8 hPa 0,0 l/m 0 min 0 min 0 W/m 19,3 km/h (3 Bft) 95,74 %
21.12.2018 03:12 8,4 C 7,8 C 7,2 C 86 % 1007,7 hPa 0,0 l/m 0 min 0 min 0 W/m 19,3 km/h (3 Bft) 95,74 %
21.12.2018 03:14 8,4 C 7,8 C 7,2 C 86 % 1007,8 hPa 0,0 l/m 0 min 0 min 0 W/m 22,5 km/h (4 Bft) 95,74 %
21.12.2018 03:16 8,3 C 7,8 C 6,7 C 86 % 1007,7 hPa 0,0 l/m 0 min 0 min 0 W/m 16,1 km/h (3 Bft) 95,74 %
21.12.2018 03:18 8,3 C 7,8 C 6,7 C 86 % 1007,7 hPa 0,0 l/m 0 min 0 min 0 W/m 16,1 km/h (3 Bft) 95,74 %
21.12.2018 03:20 8,3 C 7,8 C 6,7 C 86 % 1007,7 hPa 0,0 l/m 0 min 0 min 0 W/m 16,1 km/h (3 Bft) 95,65 %
21.12.2018 03:22 8,3 C 7,8 C 6,7 C 86 % 1007,6 hPa 0,0 l/m 0 min 0 min 0 W/m 22,5 km/h (4 Bft) 93,62 %
21.12.2018 03:24 8,3 C 7,8 C 6,7 C 86 % 1007,6 hPa 0,0 l/m 0 min 0 min 0 W/m 16,1 km/h (3 Bft) 95,74 %
21.12.2018 03:26 8,3 C 7,8 C 6,7 C 86 % 1007,5 hPa 0,0 l/m 0 min 0 min 0 W/m 25,7 km/h (4 Bft) 95,74 %
21.12.2018 03:28 8,3 C 7,8 C 6,7 C 86 % 1007,5 hPa 0,0 l/m 0 min 0 min 0 W/m 22,5 km/h (4 Bft) 95,74 %
21.12.2018 03:30 8,3 C 7,8 C 6,7 C 86 % 1007,4 hPa 0,0 l/m 0 min 0 min 0 W/m 16,1 km/h (3 Bft) 95,74 %
21.12.2018 03:32 8,3 C 7,8 C 6,7 C 86 % 1007,4 hPa 0,0 l/m 0 min 0 min 0 W/m 12,9 km/h (3 Bft) 97,83 %
21.12.2018 03:34 8,3 C 7,8 C 7,2 C 86 % 1007,4 hPa 0,0 l/m 0 min 0 min 0 W/m 16,1 km/h (3 Bft) 95,74 %
21.12.2018 03:36 8,2 C 7,8 C 6,7 C 86 % 1007,4 hPa 0,0 l/m 0 min 0 min 0 W/m 19,3 km/h (3 Bft) 97,87 %
21.12.2018 03:38 8,2 C 7,8 C 6,7 C 86 % 1007,3 hPa 0,0 l/m 0 min 0 min 0 W/m 19,3 km/h (3 Bft) 97,87 %
21.12.2018 03:40 8,2 C 7,8 C 6,7 C 86 % 1007,4 hPa 0,0 l/m 0 min 0 min 0 W/m 16,1 km/h (3 Bft) 97,87 %
21.12.2018 03:42 8,2 C 7,8 C 6,7 C 86 % 1007,3 hPa 0,0 l/m 0 min 0 min 0 W/m 12,9 km/h (3 Bft) 97,87 %
21.12.2018 03:44 8,2 C 7,8 C 7,2 C 86 % 1007,3 hPa 0,0 l/m 0 min 0 min 0 W/m 22,5 km/h (4 Bft) 95,65 %
21.12.2018 03:46 8,2 C 7,8 C 7,2 C 86 % 1007,2 hPa 0,0 l/m 0 min 0 min 0 W/m 16,1 km/h (3 Bft) 97,87 %
21.12.2018 03:48 8,2 C 7,8 C 7,2 C 86 % 1007,1 hPa 0,0 l/m 0 min 0 min 0 W/m 12,9 km/h (3 Bft) 97,87 %
21.12.2018 03:50 8,2 C 7,8 C 7,2 C 86 % 1007,0 hPa 0,0 l/m 0 min 0 min 0 W/m 16,1 km/h (3 Bft) 97,87 %
21.12.2018 03:52 8,2 C 7,8 C 7,2 C 86 % 1007,0 hPa 0,0 l/m 0 min 0 min 0 W/m 16,1 km/h (3 Bft) 100,00 %
21.12.2018 03:54 8,2 C 7,8 C 6,7 C 86 % 1007,1 hPa 0,0 l/m 0 min 0 min 0 W/m 16,1 km/h (3 Bft) 97,87 %
21.12.2018 03:56 8,2 C 7,8 C 7,2 C 86 % 1007,1 hPa 0,0 l/m 0 min 0 min 0 W/m 12,9 km/h (3 Bft) 97,83 %
21.12.2018 03:58 8,2 C 7,8 C 7,2 C 86 % 1007,0 hPa 0,0 l/m 0 min 0 min 0 W/m 22,5 km/h (4 Bft) 97,87 %
21.12.2018 04:00 8,2 C 7,8 C 7,2 C 87 % 1007,0 hPa 0,0 l/m 0 min 0 min 0 W/m 19,3 km/h (3 Bft) 95,74 %
21.12.2018 04:05 8,2 C 7,8 C 6,7 C 87 % 1007,0 hPa 0,0 l/m 0 min 0 min 0 W/m 22,5 km/h (4 Bft) 95,52 %
21.12.2018 04:06 8,2 C 7,8 C 6,7 C 87 % 1006,9 hPa 0,0 l/m 0 min 0 min 0 W/m 16,1 km/h (3 Bft) 95,83 %
21.12.2018 04:08 8,2 C 7,2 C 6,7 C 87 % 1007,0 hPa 0,0 l/m 0 min 0 min 0 W/m 12,9 km/h (3 Bft) 97,83 %
21.12.2018 04:10 8,2 C 7,2 C 6,7 C 87 % 1007,0 hPa 0,0 l/m 0 min 0 min 0 W/m 12,9 km/h (3 Bft) 97,87 %
21.12.2018 04:12 8,2 C 7,2 C 6,7 C 87 % 1006,8 hPa 0,0 l/m 0 min 0 min 0 W/m 12,9 km/h (3 Bft) 97,87 %
21.12.2018 04:14 8,2 C 7,2 C 6,7 C 87 % 1006,8 hPa 0,0 l/m 0 min 0 min 0 W/m 29,0 km/h (5 Bft) 97,87 %
21.12.2018 04:16 8,2 C 7,2 C 6,7 C 87 % 1006,8 hPa 0,0 l/m 0 min 0 min 0 W/m 16,1 km/h (3 Bft) 95,74 %
21.12.2018 04:18 8,2 C 7,2 C 6,7 C 88 % 1006,7 hPa 0,0 l/m 0 min 0 min 0 W/m 16,1 km/h (3 Bft) 93,48 %
21.12.2018 04:20 8,2 C 7,2 C 6,7 C 88 % 1006,6 hPa 0,0 l/m 0 min 0 min 0 W/m 9,7 km/h (2 Bft) 95,74 %
21.12.2018 04:22 8,2 C 7,2 C 6,7 C 88 % 1006,6 hPa 0,0 l/m 0 min 0 min 0 W/m 12,9 km/h (3 Bft) 97,87 %
21.12.2018 04:24 8,2 C 7,8 C 6,7 C 88 % 1006,5 hPa 0,0 l/m 0 min 0 min 0 W/m 19,3 km/h (3 Bft) 97,87 %
21.12.2018 04:26 8,2 C 7,8 C 6,7 C 88 % 1006,4 hPa 0,0 l/m 0 min 0 min 0 W/m 16,1 km/h (3 Bft) 97,87 %
21.12.2018 04:28 8,2 C 7,8 C 6,7 C 88 % 1006,4 hPa 0,0 l/m 0 min 0 min 0 W/m 12,9 km/h (3 Bft) 97,87 %
21.12.2018 04:30 8,2 C 7,8 C 6,7 C 88 % 1006,3 hPa 0,0 l/m 0 min 0 min 0 W/m 12,9 km/h (3 Bft) 97,83 %
21.12.2018 04:32 8,2 C 7,8 C 6,7 C 88 % 1006,3 hPa 0,0 l/m 0 min 0 min 0 W/m 9,7 km/h (2 Bft) 95,74 %
21.12.2018 04:34 8,2 C 7,8 C 6,7 C 88 % 1006,2 hPa 0,0 l/m 0 min 0 min 0 W/m 9,7 km/h (2 Bft) 93,62 %
21.12.2018 04:36 8,2 C 7,8 C 6,7 C 88 % 1006,2 hPa 0,0 l/m 0 min 0 min 0 W/m 9,7 km/h (2 Bft) 97,87 %
21.12.2018 04:38 8,2 C 7,8 C 6,7 C 89 % 1006,1 hPa 0,0 l/m 0 min 0 min 0 W/m 6,4 km/h (2 Bft) 98,11 %
21.12.2018 04:40 8,2 C 7,8 C 6,7 C 89 % 1006,1 hPa 0,0 l/m 0 min 0 min 0 W/m 16,1 km/h (3 Bft) 100,00 %
21.12.2018 04:42 8,2 C 7,8 C 6,7 C 89 % 1006,0 hPa 0,0 l/m 0 min 0 min 0 W/m 16,1 km/h (3 Bft) 100,00 %
21.12.2018 04:44 8,2 C 7,8 C 6,7 C 89 % 1005,9 hPa 0,0 l/m 0 min 0 min 0 W/m 12,9 km/h (3 Bft) 100,00 %
21.12.2018 04:46 8,2 C 7,8 C 6,7 C 89 % 1005,9 hPa 0,0 l/m 0 min 0 min 0 W/m 12,9 km/h (3 Bft) 100,00 %
21.12.2018 04:48 8,2 C 7,8 C 6,7 C 89 % 1005,7 hPa 0,0 l/m 0 min 0 min 0 W/m 12,9 km/h (3 Bft) 100,00 %
21.12.2018 04:50 8,2 C 7,8 C 6,7 C 89 % 1005,7 hPa 0,0 l/m 0 min 0 min 0 W/m 16,1 km/h (3 Bft) 100,00 %
21.12.2018 04:52 8,2 C 7,8 C 6,7 C 89 % 1005,7 hPa 0,0 l/m 0 min 0 min 0 W/m 16,1 km/h (3 Bft) 100,00 %
21.12.2018 04:54 8,2 C 7,8 C 6,7 C 89 % 1005,6 hPa 0,0 l/m 0 min 0 min 0 W/m 16,1 km/h (3 Bft) 100,00 %
21.12.2018 04:56 8,2 C 7,8 C 6,7 C 89 % 1005,5 hPa 0,0 l/m 0 min 0 min 0 W/m 9,7 km/h (2 Bft) 100,00 %
21.12.2018 04:58 8,2 C 7,8 C 6,7 C 89 % 1005,5 hPa 0,0 l/m 0 min 0 min 0 W/m 16,1 km/h (3 Bft) 100,00 %
21.12.2018 05:00 8,2 C 7,8 C 7,2 C 89 % 1005,5 hPa 0,0 l/m 0 min 0 min 0 W/m 9,7 km/h (2 Bft) 100,00 %
21.12.2018 05:02 8,2 C 7,8 C 7,2 C 89 % 1005,4 hPa 0,0 l/m 0 min 0 min 0 W/m 12,9 km/h (3 Bft) 97,87 %
21.12.2018 05:04 8,2 C 7,8 C 6,7 C 89 % 1005,3 hPa 0,0 l/m 0 min 0 min 0 W/m 12,9 km/h (3 Bft) 100,00 %
21.12.2018 05:06 8,2 C 7,8 C 6,7 C 89 % 1005,2 hPa 0,0 l/m 0 min 2 min 0 W/m 16,1 km/h (3 Bft) 100,00 %
21.12.2018 05:08 8,2 C 7,2 C 6,7 C 88 % 1005,2 hPa 0,0 l/m 0 min 2 min 0 W/m 16,1 km/h (3 Bft) 100,00 %
21.12.2018 05:10 8,1 C 7,2 C 6,1 C 88 % 1005,1 hPa 0,0 l/m 0 min 2 min 0 W/m 16,1 km/h (3 Bft) 97,87 %
21.12.2018 05:12 8,1 C 7,2 C 6,1 C 89 % 1005,0 hPa 0,0 l/m 0 min 0 min 0 W/m 22,5 km/h (4 Bft) 97,87 %
21.12.2018 05:14 8,1 C 6,7 C 6,1 C 89 % 1005,0 hPa 0,0 l/m 0 min 0 min 0 W/m 16,1 km/h (3 Bft) 100,00 %
21.12.2018 05:16 8,1 C 6,7 C 6,1 C 89 % 1004,9 hPa 0,0 l/m 0 min 0 min 0 W/m 16,1 km/h (3 Bft) 100,00 %
21.12.2018 05:18 8,1 C 7,2 C 6,1 C 89 % 1004,9 hPa 0,0 l/m 0 min 0 min 0 W/m 12,9 km/h (3 Bft) 97,83 %
21.12.2018 05:20 8,0 C 7,2 C 6,1 C 89 % 1004,9 hPa 0,0 l/m 0 min 0 min 0 W/m 16,1 km/h (3 Bft) 100,00 %
21.12.2018 05:22 8,0 C 7,2 C 6,1 C 89 % 1004,8 hPa 0,0 l/m 0 min 0 min 0 W/m 12,9 km/h (3 Bft) 97,87 %
21.12.2018 05:24 7,9 C 7,2 C 6,7 C 89 % 1004,7 hPa 0,0 l/m 0 min 2 min 0 W/m 22,5 km/h (4 Bft) 100,00 %
21.12.2018 05:26 7,9 C 7,2 C 6,7 C 89 % 1004,7 hPa 0,0 l/m 0 min 0 min 0 W/m 19,3 km/h (3 Bft) 100,00 %
21.12.2018 05:28 7,9 C 7,2 C 6,7 C 89 % 1004,7 hPa 0,0 l/m 0 min 0 min 0 W/m 16,1 km/h (3 Bft) 100,00 %
21.12.2018 05:30 7,9 C 7,2 C 6,7 C 89 % 1004,8 hPa 0,0 l/m 0 min 0 min 0 W/m 16,1 km/h (3 Bft) 100,00 %
21.12.2018 05:32 7,9 C 7,2 C 6,7 C 90 % 1004,8 hPa 0,0 l/m 0 min 0 min 0 W/m 16,1 km/h (3 Bft) 95,65 %
21.12.2018 05:34 7,9 C 7,2 C 6,7 C 90 % 1004,7 hPa 0,0 l/m 0 min 0 min 0 W/m 12,9 km/h (3 Bft) 97,87 %
21.12.2018 05:36 7,9 C 6,7 C 6,1 C 90 % 1004,7 hPa 0,0 l/m 0 min 2 min 0 W/m 9,7 km/h (2 Bft) 95,74 %
21.12.2018 05:38 7,9 C 6,1 C 6,1 C 90 % 1004,8 hPa 0,0 l/m 0 min 2 min 0 W/m 12,9 km/h (3 Bft) 100,00 %
21.12.2018 05:40 7,9 C 6,1 C 6,1 C 90 % 1004,9 hPa 0,2 l/m 0 min 2 min 0 W/m 12,9 km/h (3 Bft) 100,00 %
21.12.2018 05:42 7,9 C 6,1 C 5,6 C 90 % 1004,9 hPa 0,2 l/m 0 min 2 min 0 W/m 3,2 km/h (1 Bft) 97,83 %
21.12.2018 05:44 7,9 C 6,1 C 5,6 C 91 % 1004,9 hPa 0,2 l/m 0 min 2 min 0 W/m 12,9 km/h (3 Bft) 97,87 %
21.12.2018 05:46 7,9 C 6,1 C 5,6 C 91 % 1004,8 hPa 0,2 l/m 0 min 2 min 0 W/m 6,4 km/h (2 Bft) 100,00 %
21.12.2018 05:48 7,9 C 6,1 C 5,6 C 91 % 1004,8 hPa 0,0 l/m 0 min 2 min 0 W/m 0,0 km/h (0 Bft) 100,00 %
21.12.2018 05:50 7,8 C 6,1 C 5,6 C 91 % 1004,7 hPa 0,2 l/m 0 min 2 min 0 W/m 0,0 km/h (0 Bft) 100,00 %
21.12.2018 05:52 7,8 C 6,1 C 5,6 C 91 % 1004,7 hPa 0,2 l/m 0 min 2 min 0 W/m 3,2 km/h (1 Bft) 97,87 %
21.12.2018 05:54 7,8 C 6,1 C 5,6 C 92 % 1004,6 hPa 0,2 l/m 0 min 2 min 0 W/m 3,2 km/h (1 Bft) 97,87 %
21.12.2018 05:56 7,8 C 6,1 C 5,6 C 92 % 1004,6 hPa 0,2 l/m 0 min 2 min 0 W/m 12,9 km/h (3 Bft) 95,65 %
21.12.2018 05:58 7,8 C 6,1 C 5,6 C 92 % 1004,5 hPa 0,0 l/m 0 min 2 min 0 W/m 3,2 km/h (1 Bft) 95,74 %
21.12.2018 06:00 7,8 C 6,1 C 5,6 C 92 % 1004,4 hPa 0,2 l/m 0 min 2 min 0 W/m 0,0 km/h (0 Bft) 95,74 %
21.12.2018 06:02 7,7 C 6,1 C 5,6 C 93 % 1004,3 hPa 0,2 l/m 0 min 2 min 0 W/m 12,9 km/h (3 Bft) 91,49 %
21.12.2018 06:04 7,7 C 6,1 C 5,6 C 93 % 1004,3 hPa 0,0 l/m 0 min 2 min 0 W/m 3,2 km/h (1 Bft) 95,74 %
21.12.2018 06:08 7,7 C 6,1 C 5,6 C 93 % 1004,1 hPa 0,2 l/m 0 min 4 min 0 W/m 12,9 km/h (3 Bft) 95,70 %
21.12.2018 06:10 7,7 C 6,1 C 5,6 C 93 % 1004,2 hPa 0,2 l/m 0 min 2 min 0 W/m 12,9 km/h (3 Bft) 95,74 %
21.12.2018 06:12 7,7 C 6,1 C 5,6 C 93 % 1004,1 hPa 0,0 l/m 0 min 2 min 0 W/m 9,7 km/h (2 Bft) 95,74 %
21.12.2018 06:14 7,6 C 6,1 C 5,6 C 94 % 1004,0 hPa 0,2 l/m 0 min 2 min 0 W/m 0,0 km/h (0 Bft) 95,74 %
21.12.2018 06:16 7,6 C 6,1 C 5,6 C 94 % 1003,9 hPa 0,2 l/m 0 min 2 min 0 W/m 3,2 km/h (1 Bft) 95,74 %
21.12.2018 06:18 7,6 C 6,1 C 5,6 C 94 % 1003,8 hPa 0,0 l/m 0 min 2 min 0 W/m 0,0 km/h (0 Bft) 93,48 %
21.12.2018 06:20 7,6 C 6,1 C 5,6 C 94 % 1003,7 hPa 0,0 l/m 0 min 2 min 0 W/m 0,0 km/h (0 Bft) 91,49 %
21.12.2018 06:22 7,6 C 6,1 C 5,6 C 94 % 1003,7 hPa 0,2 l/m 0 min 2 min 0 W/m 3,2 km/h (1 Bft) 95,74 %
21.12.2018 06:24 7,5 C 6,1 C 5,6 C 94 % 1003,7 hPa 0,0 l/m 0 min 2 min 0 W/m 6,4 km/h (2 Bft) 95,74 %
21.12.2018 06:26 7,5 C 6,1 C 5,6 C 94 % 1003,5 hPa 0,2 l/m 0 min 2 min 0 W/m 3,2 km/h (1 Bft) 95,74 %
21.12.2018 06:28 7,4 C 6,1 C 5,6 C 94 % 1003,4 hPa 0,0 l/m 0 min 2 min 0 W/m 12,9 km/h (3 Bft) 95,74 %
21.12.2018 06:30 7,4 C 6,1 C 5,6 C 94 % 1003,4 hPa 0,0 l/m 0 min 2 min 0 W/m 12,9 km/h (3 Bft) 95,65 %
21.12.2018 06:32 7,4 C 6,1 C 5,6 C 95 % 1003,3 hPa 0,2 l/m 0 min 2 min 0 W/m 0,0 km/h (0 Bft) 93,62 %
21.12.2018 06:34 7,4 C 6,1 C 5,6 C 95 % 1003,3 hPa 0,0 l/m 0 min 2 min 0 W/m 3,2 km/h (1 Bft) 91,49 %
21.12.2018 06:36 7,4 C 6,1 C 5,6 C 95 % 1003,2 hPa 0,2 l/m 0 min 2 min 0 W/m 12,9 km/h (3 Bft) 95,74 %
21.12.2018 06:38 7,4 C 6,1 C 5,6 C 95 % 1003,1 hPa 0,0 l/m 0 min 2 min 0 W/m 0,0 km/h (0 Bft) 95,74 %
21.12.2018 06:40 7,4 C 6,1 C 5,6 C 95 % 1002,9 hPa 0,2 l/m 0 min 2 min 0 W/m 6,4 km/h (2 Bft) 95,65 %
21.12.2018 06:42 7,4 C 6,1 C 5,6 C 95 % 1002,9 hPa 0,2 l/m 0 min 2 min 0 W/m 12,9 km/h (3 Bft) 93,62 %
21.12.2018 06:44 7,4 C 6,7 C 6,1 C 95 % 1002,8 hPa 0,0 l/m 0 min 2 min 0 W/m 16,1 km/h (3 Bft) 93,62 %
21.12.2018 06:46 7,4 C 6,7 C 6,1 C 95 % 1002,7 hPa 0,2 l/m 0 min 2 min 0 W/m 3,2 km/h (1 Bft) 95,74 %
21.12.2018 06:48 7,4 C 6,7 C 6,1 C 95 % 1002,7 hPa 0,2 l/m 0 min 2 min 0 W/m 9,7 km/h (2 Bft) 95,74 %
21.12.2018 06:50 7,4 C 6,7 C 6,1 C 95 % 1002,6 hPa 0,0 l/m 0 min 2 min 0 W/m 16,1 km/h (3 Bft) 93,62 %
21.12.2018 06:52 7,4 C 6,7 C 6,1 C 96 % 1002,6 hPa 0,2 l/m 0 min 2 min 0 W/m 9,7 km/h (2 Bft) 95,74 %
21.12.2018 06:54 7,4 C 6,7 C 6,1 C 95 % 1002,5 hPa 0,0 l/m 0 min 2 min 0 W/m 9,7 km/h (2 Bft) 95,65 %
21.12.2018 06:56 7,4 C 6,7 C 6,1 C 96 % 1002,4 hPa 0,2 l/m 0 min 2 min 0 W/m 22,5 km/h (4 Bft) 97,87 %
21.12.2018 06:58 7,5 C 6,7 C 6,1 C 96 % 1002,4 hPa 0,0 l/m 0 min 2 min 0 W/m 29,0 km/h (5 Bft) 95,74 %
21.12.2018 07:00 7,5 C 6,7 C 6,1 C 96 % 1002,3 hPa 0,0 l/m 0 min 2 min 0 W/m 22,5 km/h (4 Bft) 97,87 %
21.12.2018 07:02 7,5 C 6,7 C 6,1 C 96 % 1002,3 hPa 0,2 l/m 0 min 2 min 0 W/m 16,1 km/h (3 Bft) 97,87 %
21.12.2018 07:04 7,5 C 6,7 C 6,1 C 96 % 1002,3 hPa 0,0 l/m 0 min 2 min 0 W/m 22,5 km/h (4 Bft) 97,83 %
21.12.2018 07:06 7,5 C 6,7 C 6,1 C 96 % 1002,2 hPa 0,2 l/m 0 min 2 min 0 W/m 19,3 km/h (3 Bft) 95,74 %
21.12.2018 07:08 7,6 C 6,7 C 6,1 C 96 % 1002,2 hPa 0,0 l/m 0 min 2 min 0 W/m 25,7 km/h (4 Bft) 93,62 %
21.12.2018 07:10 7,6 C 6,7 C 6,1 C 96 % 1002,1 hPa 0,2 l/m 0 min 2 min 0 W/m 16,1 km/h (3 Bft) 100,00 %
21.12.2018 07:12 7,6 C 6,7 C 6,1 C 96 % 1002,1 hPa 0,0 l/m 0 min 2 min 0 W/m 19,3 km/h (3 Bft) 95,74 %
21.12.2018 07:14 7,6 C 6,7 C 6,1 C 96 % 1002,0 hPa 0,2 l/m 0 min 2 min 0 W/m 19,3 km/h (3 Bft) 97,87 %
21.12.2018 07:16 7,6 C 6,7 C 6,1 C 96 % 1001,9 hPa 0,0 l/m 0 min 2 min 0 W/m 19,3 km/h (3 Bft) 97,87 %
21.12.2018 07:18 7,6 C 6,7 C 6,1 C 96 % 1001,8 hPa 0,0 l/m 0 min 2 min 0 W/m 19,3 km/h (3 Bft) 100,00 %
21.12.2018 07:20 7,6 C 6,7 C 6,1 C 96 % 1001,8 hPa 0,0 l/m 0 min 2 min 0 W/m 25,7 km/h (4 Bft) 100,00 %
21.12.2018 07:22 7,6 C 6,7 C 6,1 C 97 % 1001,7 hPa 0,2 l/m 0 min 2 min 0 W/m 35,4 km/h (5 Bft) 93,62 %
21.12.2018 07:24 7,6 C 6,7 C 6,1 C 97 % 1001,6 hPa 0,0 l/m 0 min 2 min 0 W/m 19,3 km/h (3 Bft) 95,74 %
21.12.2018 07:26 7,6 C 6,7 C 6,1 C 97 % 1001,7 hPa 0,0 l/m 0 min 2 min 0 W/m 19,3 km/h (3 Bft) 97,87 %
21.12.2018 07:28 7,6 C 6,7 C 6,1 C 97 % 1001,6 hPa 0,2 l/m 0 min 2 min 0 W/m 29,0 km/h (5 Bft) 100,00 %
21.12.2018 07:30 7,6 C 6,7 C 6,1 C 97 % 1001,6 hPa 0,0 l/m 0 min 2 min 0 W/m 22,5 km/h (4 Bft) 100,00 %
21.12.2018 07:32 7,6 C 6,7 C 6,1 C 97 % 1001,6 hPa 0,0 l/m 0 min 2 min 0 W/m 16,1 km/h (3 Bft) 100,00 %
21.12.2018 07:34 7,6 C 6,7 C 6,1 C 97 % 1001,5 hPa 0,0 l/m 0 min 2 min 0 W/m 29,0 km/h (5 Bft) 97,87 %
21.12.2018 07:36 7,6 C 6,7 C 6,1 C 97 % 1001,6 hPa 0,0 l/m 0 min 2 min 0 W/m 32,2 km/h (5 Bft) 100,00 %
21.12.2018 07:38 7,6 C 6,7 C 6,1 C 97 % 1001,5 hPa 0,2 l/m 0 min 2 min 0 W/m 16,1 km/h (3 Bft) 100,00 %
21.12.2018 07:40 7,6 C 6,7 C 6,1 C 97 % 1001,4 hPa 0,0 l/m 0 min 2 min 0 W/m 22,5 km/h (4 Bft) 100,00 %
21.12.2018 07:42 7,6 C 6,7 C 6,1 C 97 % 1001,3 hPa 0,0 l/m 0 min 2 min 0 W/m 19,3 km/h (3 Bft) 100,00 %
21.12.2018 07:44 7,6 C 6,7 C 6,1 C 97 % 1001,1 hPa 0,0 l/m 0 min 2 min 0 W/m 32,2 km/h (5 Bft) 100,00 %
21.12.2018 07:46 7,6 C 6,7 C 6,1 C 97 % 1001,2 hPa 0,2 l/m 0 min 2 min 0 W/m 25,7 km/h (4 Bft) 100,00 %
21.12.2018 07:48 7,6 C 6,7 C 6,1 C 97 % 1001,1 hPa 0,0 l/m 0 min 2 min 0 W/m 22,5 km/h (4 Bft) 100,00 %
21.12.2018 07:50 7,6 C 6,7 C 6,1 C 97 % 1001,0 hPa 0,0 l/m 0 min 2 min 0 W/m 16,1 km/h (3 Bft) 100,00 %
21.12.2018 07:52 7,6 C 6,7 C 6,1 C 97 % 1001,1 hPa 0,0 l/m 0 min 2 min 0 W/m 32,2 km/h (5 Bft) 100,00 %
21.12.2018 07:54 7,6 C 6,7 C 6,1 C 97 % 1001,0 hPa 0,2 l/m 0 min 2 min 0 W/m 16,1 km/h (3 Bft) 100,00 %
21.12.2018 07:56 7,6 C 6,7 C 6,1 C 97 % 1001,0 hPa 0,0 l/m 0 min 2 min 0 W/m 16,1 km/h (3 Bft) 100,00 %
21.12.2018 07:58 7,6 C 6,7 C 6,1 C 97 % 1001,0 hPa 0,0 l/m 0 min 2 min 0 W/m 19,3 km/h (3 Bft) 100,00 %
21.12.2018 08:00 7,6 C 6,7 C 6,1 C 97 % 1001,0 hPa 0,2 l/m 0 min 2 min 0 W/m 22,5 km/h (4 Bft) 100,00 %
21.12.2018 08:02 7,7 C 6,7 C 6,1 C 97 % 1000,9 hPa 0,0 l/m 0 min 2 min 0 W/m 19,3 km/h (3 Bft) 100,00 %
21.12.2018 08:04 7,7 C 6,7 C 6,1 C 97 % 1000,9 hPa 0,0 l/m 0 min 2 min 0 W/m 12,9 km/h (3 Bft) 97,87 %
21.12.2018 08:06 7,7 C 6,7 C 6,1 C 97 % 1000,7 hPa 0,0 l/m 0 min 2 min 0 W/m 16,1 km/h (3 Bft) 100,00 %
21.12.2018 08:08 7,7 C 6,7 C 6,7 C 97 % 1000,8 hPa 0,0 l/m 0 min 2 min 0 W/m 12,9 km/h (3 Bft) 100,00 %
21.12.2018 08:10 7,7 C 6,7 C 6,7 C 97 % 1000,8 hPa 0,2 l/m 0 min 2 min 0 W/m 12,9 km/h (3 Bft) 100,00 %
21.12.2018 08:12 7,7 C 7,2 C 6,7 C 97 % 1000,7 hPa 0,0 l/m 0 min 2 min 0 W/m 22,5 km/h (4 Bft) 100,00 %
21.12.2018 08:14 7,7 C 7,2 C 6,7 C 97 % 1000,6 hPa 0,0 l/m 0 min 2 min 0 W/m 16,1 km/h (3 Bft) 100,00 %
21.12.2018 08:16 7,8 C 7,2 C 6,7 C 97 % 1000,6 hPa 0,2 l/m 0 min 2 min 0 W/m 12,9 km/h (3 Bft) 97,87 %
21.12.2018 08:18 7,8 C 7,2 C 6,7 C 97 % 1000,6 hPa 0,0 l/m 0 min 2 min 0 W/m 16,1 km/h (3 Bft) 97,83 %
21.12.2018 08:20 7,8 C 7,2 C 6,7 C 97 % 1000,5 hPa 0,0 l/m 0 min 2 min 0 W/m 22,5 km/h (4 Bft) 97,87 %
21.12.2018 08:22 7,8 C 7,2 C 6,7 C 98 % 1000,5 hPa 0,0 l/m 0 min 2 min 0 W/m 25,7 km/h (4 Bft) 95,74 %
21.12.2018 08:24 7,8 C 7,2 C 6,7 C 97 % 1000,5 hPa 0,0 l/m 0 min 2 min 0 W/m 19,3 km/h (3 Bft) 100,00 %
21.12.2018 08:26 7,9 C 7,2 C 6,7 C 97 % 1000,4 hPa 0,2 l/m 0 min 2 min 0 W/m 35,4 km/h (5 Bft) 100,00 %
21.12.2018 08:28 7,9 C 7,2 C 6,7 C 97 % 1000,4 hPa 0,0 l/m 0 min 2 min 0 W/m 16,1 km/h (3 Bft) 97,87 %
21.12.2018 08:30 7,9 C 7,2 C 6,7 C 97 % 1000,3 hPa 0,2 l/m 0 min 2 min 0 W/m 16,1 km/h (3 Bft) 97,83 %
21.12.2018 08:32 8,0 C 7,2 C 6,7 C 98 % 1000,2 hPa 0,0 l/m 0 min 2 min 0 W/m 19,3 km/h (3 Bft) 100,00 %
21.12.2018 08:34 8,0 C 7,2 C 6,7 C 98 % 1000,1 hPa 0,0 l/m 0 min 2 min 0 W/m 19,3 km/h (3 Bft) 100,00 %
21.12.2018 08:36 8,1 C 7,2 C 6,7 C 98 % 1000,0 hPa 0,2 l/m 0 min 2 min 0 W/m 19,3 km/h (3 Bft) 98,31 %
21.12.2018 08:38 8,1 C 7,2 C 6,7 C 98 % 1000,0 hPa 0,0 l/m 0 min 2 min 0 W/m 12,9 km/h (3 Bft) 97,83 %
21.12.2018 08:40 8,1 C 7,2 C 6,7 C 98 % 1000,0 hPa 0,0 l/m 0 min 2 min 0 W/m 22,5 km/h (4 Bft) 97,22 %
21.12.2018 08:42 8,2 C 7,8 C 6,7 C 98 % 999,9 hPa 0,2 l/m 0 min 2 min 0 W/m 22,5 km/h (4 Bft) 97,87 %
21.12.2018 08:44 8,2 C 7,8 C 7,2 C 98 % 999,9 hPa 0,0 l/m 0 min 2 min 0 W/m 22,5 km/h (4 Bft) 97,83 %
21.12.2018 08:46 8,3 C 7,8 C 7,2 C 98 % 999,9 hPa 0,0 l/m 0 min 2 min 0 W/m 22,5 km/h (4 Bft) 97,87 %
21.12.2018 08:48 8,3 C 7,8 C 7,2 C 98 % 999,8 hPa 0,2 l/m 0 min 2 min 0 W/m 25,7 km/h (4 Bft) 97,87 %
21.12.2018 08:50 8,3 C 7,8 C 7,2 C 98 % 999,9 hPa 0,0 l/m 0 min 2 min 0 W/m 16,1 km/h (3 Bft) 97,87 %
21.12.2018 08:52 8,3 C 7,8 C 7,2 C 98 % 999,9 hPa 0,0 l/m 0 min 2 min 0 W/m 12,9 km/h (3 Bft) 97,87 %
21.12.2018 08:54 8,4 C 7,8 C 7,2 C 98 % 999,8 hPa 0,2 l/m 0 min 2 min 0 W/m 16,1 km/h (3 Bft) 95,65 %
21.12.2018 08:56 8,4 C 7,8 C 7,2 C 98 % 999,8 hPa 0,0 l/m 0 min 2 min 0 W/m 19,3 km/h (3 Bft) 97,87 %
21.12.2018 08:58 8,4 C 7,8 C 7,2 C 98 % 999,8 hPa 0,2 l/m 0 min 2 min 0 W/m 19,3 km/h (3 Bft) 97,87 %
21.12.2018 09:00 8,4 C 7,8 C 7,2 C 98 % 999,5 hPa 0,2 l/m 0 min 2 min 0 W/m 19,3 km/h (3 Bft) 97,87 %
21.12.2018 09:02 8,4 C 7,8 C 7,2 C 98 % 999,6 hPa 0,0 l/m 0 min 2 min 0 W/m 22,5 km/h (4 Bft) 97,87 %
21.12.2018 09:04 8,4 C 7,8 C 7,2 C 98 % 999,4 hPa 0,0 l/m 0 min 2 min 0 W/m 16,1 km/h (3 Bft) 93,62 %
21.12.2018 09:06 8,5 C 7,8 C 7,2 C 98 % 999,3 hPa 0,2 l/m 0 min 2 min 0 W/m 16,1 km/h (3 Bft) 94,83 %
21.12.2018 09:08 8,5 C 7,8 C 7,2 C 98 % 999,3 hPa 0,0 l/m 0 min 2 min 0 W/m 19,3 km/h (3 Bft) 94,29 %
21.12.2018 09:10 8,4 C 7,8 C 7,2 C 98 % 999,3 hPa 0,2 l/m 0 min 2 min 0 W/m 16,1 km/h (3 Bft) 93,62 %
21.12.2018 09:12 8,5 C 7,8 C 7,2 C 98 % 999,3 hPa 0,0 l/m 0 min 2 min 0 W/m 16,1 km/h (3 Bft) 93,62 %
21.12.2018 09:14 8,5 C 7,8 C 7,2 C 98 % 999,2 hPa 0,0 l/m 0 min 2 min 0 W/m 25,7 km/h (4 Bft) 93,62 %
21.12.2018 09:16 8,5 C 7,8 C 7,2 C 98 % 999,1 hPa 0,2 l/m 0 min 2 min 0 W/m 16,1 km/h (3 Bft) 93,48 %
21.12.2018 09:18 8,5 C 7,8 C 7,2 C 98 % 999,1 hPa 0,0 l/m 0 min 2 min 0 W/m 22,5 km/h (4 Bft) 93,62 %
21.12.2018 09:20 8,5 C 7,8 C 7,2 C 98 % 999,0 hPa 0,2 l/m 0 min 2 min 0 W/m 25,7 km/h (4 Bft) 93,62 %
21.12.2018 09:22 8,6 C 7,8 C 7,2 C 98 % 999,0 hPa 0,0 l/m 0 min 2 min 0 W/m 25,7 km/h (4 Bft) 93,62 %
21.12.2018 09:24 8,6 C 7,8 C 7,2 C 98 % 998,8 hPa 0,2 l/m 0 min 2 min 0 W/m 29,0 km/h (5 Bft) 93,62 %
21.12.2018 09:26 8,6 C 7,8 C 7,2 C 98 % 998,7 hPa 0,0 l/m 0 min 2 min 4 W/m 29,0 km/h (5 Bft) 95,74 %
21.12.2018 09:28 8,6 C 7,8 C 7,2 C 98 % 998,7 hPa 0,2 l/m 0 min 2 min 5 W/m 22,5 km/h (4 Bft) 95,74 %
21.12.2018 09:30 8,6 C 7,8 C 7,2 C 98 % 998,5 hPa 0,0 l/m 0 min 2 min 6 W/m 16,1 km/h (3 Bft) 93,48 %
21.12.2018 09:32 8,6 C 7,8 C 7,2 C 98 % 998,5 hPa 0,0 l/m 0 min 2 min 7 W/m 16,1 km/h (3 Bft) 95,74 %
21.12.2018 09:34 8,6 C 7,8 C 7,2 C 98 % 998,4 hPa 0,2 l/m 0 min 2 min 7 W/m 29,0 km/h (5 Bft) 95,74 %
21.12.2018 09:36 8,6 C 7,8 C 7,2 C 98 % 998,3 hPa 0,0 l/m 0 min 2 min 7 W/m 19,3 km/h (3 Bft) 96,55 %
21.12.2018 09:38 8,5 C 7,8 C 7,2 C 98 % 998,4 hPa 0,2 l/m 0 min 2 min 9 W/m 19,3 km/h (3 Bft) 94,44 %
21.12.2018 09:40 8,5 C 7,8 C 7,2 C 98 % 998,4 hPa 0,0 l/m 0 min 2 min 9 W/m 25,7 km/h (4 Bft) 95,65 %
21.12.2018 09:42 8,5 C 7,8 C 7,2 C 98 % 998,4 hPa 0,0 l/m 0 min 2 min 9 W/m 16,1 km/h (3 Bft) 95,74 %
21.12.2018 09:44 8,5 C 7,8 C 7,2 C 98 % 998,3 hPa 0,0 l/m 0 min 2 min 11 W/m 22,5 km/h (4 Bft) 95,74 %
21.12.2018 09:46 8,5 C 7,8 C 7,2 C 98 % 998,3 hPa 0,0 l/m 0 min 0 min 12 W/m 19,3 km/h (3 Bft) 95,74 %
21.12.2018 09:48 8,5 C 7,8 C 7,2 C 98 % 998,2 hPa 0,2 l/m 0 min 0 min 14 W/m 16,1 km/h (3 Bft) 95,74 %
21.12.2018 09:50 8,5 C 7,8 C 7,2 C 98 % 998,2 hPa 0,0 l/m 0 min 0 min 12 W/m 19,3 km/h (3 Bft) 97,87 %
21.12.2018 09:52 8,5 C 7,8 C 7,2 C 98 % 998,3 hPa 0,0 l/m 0 min 0 min 12 W/m 25,7 km/h (4 Bft) 97,83 %
21.12.2018 09:54 8,5 C 7,8 C 7,2 C 98 % 998,2 hPa 0,0 l/m 0 min 0 min 10 W/m 29,0 km/h (5 Bft) 97,87 %
21.12.2018 09:56 8,6 C 7,8 C 7,2 C 98 % 998,2 hPa 0,0 l/m 0 min 2 min 7 W/m 22,5 km/h (4 Bft) 93,62 %
21.12.2018 09:58 8,6 C 7,8 C 7,2 C 98 % 998,2 hPa 0,2 l/m 0 min 2 min 5 W/m 22,5 km/h (4 Bft) 97,87 %
21.12.2018 10:00 8,6 C 7,8 C 7,2 C 98 % 998,2 hPa 0,2 l/m 0 min 2 min 7 W/m 29,0 km/h (5 Bft) 97,87 %
21.12.2018 10:02 8,6 C 7,8 C 7,2 C 98 % 998,1 hPa 0,2 l/m 0 min 2 min 9 W/m 22,5 km/h (4 Bft) 97,87 %
21.12.2018 10:04 8,6 C 7,8 C 7,2 C 98 % 998,1 hPa 0,0 l/m 0 min 2 min 14 W/m 16,1 km/h (3 Bft) 95,65 %
21.12.2018 10:06 8,6 C 7,8 C 7,2 C 98 % 998,1 hPa 0,2 l/m 0 min 2 min 23 W/m 29,0 km/h (5 Bft) 100,00 %
21.12.2018 10:08 8,7 C 7,8 C 7,2 C 98 % 998,1 hPa 0,0 l/m 0 min 0 min 14 W/m 25,7 km/h (4 Bft) 100,00 %
21.12.2018 10:10 8,7 C 7,8 C 7,2 C 98 % 998,1 hPa 0,0 l/m 0 min 2 min 11 W/m 29,0 km/h (5 Bft) 100,00 %
21.12.2018 10:12 8,7 C 7,8 C 7,2 C 98 % 998,1 hPa 0,2 l/m 0 min 2 min 12 W/m 25,7 km/h (4 Bft) 95,74 %
21.12.2018 10:14 8,7 C 7,8 C 7,2 C 98 % 998,0 hPa 0,0 l/m 0 min 2 min 14 W/m 16,1 km/h (3 Bft) 100,00 %
21.12.2018 10:16 8,7 C 7,8 C 7,2 C 98 % 998,0 hPa 0,2 l/m 0 min 2 min 14 W/m 25,7 km/h (4 Bft) 97,83 %
21.12.2018 10:18 8,7 C 7,8 C 7,2 C 98 % 998,1 hPa 0,0 l/m 0 min 2 min 15 W/m 16,1 km/h (3 Bft) 100,00 %
21.12.2018 10:20 8,7 C 7,8 C 7,2 C 98 % 998,0 hPa 0,0 l/m 0 min 0 min 17 W/m 19,3 km/h (3 Bft) 100,00 %
21.12.2018 10:22 8,7 C 7,8 C 7,2 C 98 % 997,9 hPa 0,2 l/m 0 min 0 min 17 W/m 22,5 km/h (4 Bft) 97,87 %
21.12.2018 10:24 8,7 C 7,8 C 7,2 C 98 % 997,9 hPa 0,0 l/m 0 min 2 min 16 W/m 22,5 km/h (4 Bft) 100,00 %
21.12.2018 10:26 8,7 C 7,8 C 7,2 C 98 % 997,9 hPa 0,0 l/m 0 min 2 min 16 W/m 19,3 km/h (3 Bft) 100,00 %
21.12.2018 10:28 8,7 C 7,8 C 7,2 C 98 % 997,8 hPa 0,2 l/m 0 min 0 min 17 W/m 22,5 km/h (4 Bft) 100,00 %
21.12.2018 10:30 8,7 C 7,8 C 7,2 C 98 % 997,8 hPa 0,0 l/m 0 min 2 min 16 W/m 19,3 km/h (3 Bft) 100,00 %
21.12.2018 10:32 8,7 C 7,8 C 7,2 C 98 % 997,9 hPa 0,0 l/m 0 min 0 min 18 W/m 25,7 km/h (4 Bft) 100,00 %
21.12.2018 10:34 8,7 C 7,8 C 7,2 C 98 % 997,9 hPa 0,2 l/m 0 min 0 min 18 W/m 12,9 km/h (3 Bft) 100,00 %
21.12.2018 10:36 8,7 C 7,8 C 7,8 C 98 % 997,8 hPa 0,0 l/m 0 min 0 min 20 W/m 22,5 km/h (4 Bft) 100,00 %
21.12.2018 10:38 8,7 C 8,3 C 7,8 C 98 % 997,8 hPa 0,0 l/m 0 min 0 min 19 W/m 16,1 km/h (3 Bft) 94,29 %
21.12.2018 10:40 8,8 C 8,3 C 7,8 C 98 % 997,8 hPa 0,2 l/m 0 min 2 min 19 W/m 19,3 km/h (3 Bft) 100,00 %
21.12.2018 10:42 8,8 C 8,3 C 7,8 C 98 % 997,8 hPa 0,0 l/m 0 min 0 min 18 W/m 25,7 km/h (4 Bft) 100,00 %
21.12.2018 10:44 8,8 C 8,3 C 7,8 C 98 % 997,8 hPa 0,0 l/m 0 min 0 min 19 W/m 19,3 km/h (3 Bft) 97,87 %
21.12.2018 10:46 8,8 C 8,3 C 7,8 C 98 % 997,7 hPa 0,0 l/m 0 min 0 min 19 W/m 16,1 km/h (3 Bft) 100,00 %
21.12.2018 10:48 8,9 C 8,3 C 7,8 C 98 % 997,7 hPa 0,0 l/m 0 min 0 min 19 W/m 25,7 km/h (4 Bft) 95,65 %
21.12.2018 10:50 8,9 C 8,3 C 7,8 C 98 % 997,6 hPa 0,2 l/m 0 min 0 min 18 W/m 22,5 km/h (4 Bft) 93,62 %
21.12.2018 10:52 8,9 C 8,3 C 7,8 C 98 % 997,7 hPa 0,0 l/m 0 min 0 min 16 W/m 9,7 km/h (2 Bft) 100,00 %
21.12.2018 10:54 9,0 C 8,3 C 7,8 C 99 % 997,6 hPa 0,0 l/m 0 min 2 min 16 W/m 16,1 km/h (3 Bft) 100,00 %
21.12.2018 10:56 9,0 C 8,3 C 7,8 C 99 % 997,7 hPa 0,0 l/m 0 min 2 min 17 W/m 9,7 km/h (2 Bft) 100,00 %
21.12.2018 10:58 9,1 C 8,3 C 7,8 C 99 % 997,6 hPa 0,0 l/m 0 min 2 min 19 W/m 22,5 km/h (4 Bft) 100,00 %
21.12.2018 11:00 9,1 C 8,3 C 7,8 C 99 % 997,6 hPa 0,2 l/m 0 min 2 min 16 W/m 16,1 km/h (3 Bft) 97,87 %
21.12.2018 11:02 9,1 C 8,3 C 7,8 C 99 % 997,6 hPa 0,0 l/m 0 min 0 min 18 W/m 22,5 km/h (4 Bft) 97,87 %
21.12.2018 11:04 9,2 C 8,9 C 8,3 C 99 % 997,5 hPa 0,0 l/m 0 min 0 min 19 W/m 22,5 km/h (4 Bft) 100,00 %
21.12.2018 11:06 9,2 C 8,9 C 8,3 C 99 % 997,5 hPa 0,0 l/m 0 min 0 min 21 W/m 19,3 km/h (3 Bft) 96,61 %
21.12.2018 11:08 9,3 C 8,9 C 8,3 C 99 % 997,6 hPa 0,0 l/m 0 min 2 min 20 W/m 22,5 km/h (4 Bft) 100,00 %
21.12.2018 11:10 9,4 C 9,4 C 8,9 C 99 % 997,5 hPa 0,0 l/m 0 min 2 min 24 W/m 19,3 km/h (3 Bft) 97,87 %
21.12.2018 11:12 9,6 C 9,4 C 8,9 C 99 % 997,4 hPa 0,0 l/m 0 min 2 min 29 W/m 19,3 km/h (3 Bft) 97,83 %
21.12.2018 11:14 9,7 C 9,4 C 8,9 C 99 % 997,4 hPa 0,2 l/m 0 min 0 min 32 W/m 25,7 km/h (4 Bft) 95,74 %
21.12.2018 11:16 9,9 C 10,0 C 8,9 C 99 % 997,4 hPa 0,0 l/m 0 min 0 min 34 W/m 22,5 km/h (4 Bft) 97,87 %
21.12.2018 11:18 10,1 C 10,0 C 9,4 C 99 % 997,4 hPa 0,0 l/m 0 min 0 min 39 W/m 35,4 km/h (5 Bft) 100,00 %
21.12.2018 11:20 10,2 C 10,0 C 9,4 C 99 % 997,4 hPa 0,0 l/m 0 min 0 min 46 W/m 32,2 km/h (5 Bft) 100,00 %
21.12.2018 11:22 10,4 C 10,0 C 9,4 C 99 % 997,4 hPa 0,0 l/m 0 min 0 min 42 W/m 35,4 km/h (5 Bft) 100,00 %
21.12.2018 11:24 10,4 C 10,0 C 9,4 C 99 % 997,4 hPa 0,0 l/m 0 min 0 min 35 W/m 32,2 km/h (5 Bft) 97,87 %
21.12.2018 11:26 10,6 C 10,0 C 9,4 C 99 % 997,5 hPa 0,0 l/m 0 min 0 min 42 W/m 32,2 km/h (5 Bft) 97,87 %
21.12.2018 11:28 10,6 C 10,0 C 9,4 C 99 % 997,4 hPa 0,0 l/m 0 min 0 min 47 W/m 29,0 km/h (5 Bft) 97,87 %
21.12.2018 11:30 10,7 C 10,0 C 9,4 C 99 % 997,4 hPa 0,0 l/m 0 min 0 min 43 W/m 41,8 km/h (6 Bft) 97,87 %
21.12.2018 11:32 10,7 C 10,0 C 9,4 C 99 % 997,3 hPa 0,0 l/m 0 min 0 min 41 W/m 25,7 km/h (4 Bft) 93,62 %
21.12.2018 11:34 10,8 C 10,0 C 9,4 C 99 % 997,2 hPa 0,0 l/m 0 min 2 min 44 W/m 35,4 km/h (5 Bft) 95,65 %
21.12.2018 11:36 10,8 C 10,0 C 9,4 C 99 % 997,2 hPa 0,2 l/m 0 min 2 min 42 W/m 22,5 km/h (4 Bft) 95,83 %
21.12.2018 11:38 10,9 C 10,6 C 9,4 C 99 % 997,2 hPa 0,0 l/m 0 min 2 min 39 W/m 29,0 km/h (5 Bft) 94,44 %
21.12.2018 11:40 10,9 C 10,6 C 9,4 C 99 % 997,0 hPa 0,0 l/m 0 min 2 min 42 W/m 25,7 km/h (4 Bft) 94,64 %
21.12.2018 11:42 10,9 C 10,6 C 9,4 C 99 % 997,0 hPa 0,2 l/m 0 min 2 min 43 W/m 19,3 km/h (3 Bft) 93,62 %
21.12.2018 11:44 11,0 C 10,6 C 10,0 C 99 % 997,1 hPa 0,0 l/m 0 min 2 min 45 W/m 22,5 km/h (4 Bft) 95,74 %
21.12.2018 11:46 11,1 C 10,6 C 10,0 C 99 % 997,0 hPa 0,0 l/m 0 min 2 min 51 W/m 41,8 km/h (6 Bft) 93,48 %
21.12.2018 11:48 11,1 C 10,6 C 10,0 C 99 % 997,1 hPa 0,0 l/m 0 min 2 min 52 W/m 41,8 km/h (6 Bft) 93,62 %
21.12.2018 11:50 11,2 C 10,6 C 10,0 C 99 % 997,0 hPa 0,0 l/m 0 min 2 min 53 W/m 25,7 km/h (4 Bft) 93,62 %
21.12.2018 11:52 11,2 C 10,6 C 10,0 C 99 % 997,0 hPa 0,0 l/m 0 min 0 min 52 W/m 25,7 km/h (4 Bft) 95,74 %
21.12.2018 11:54 11,2 C 10,6 C 10,0 C 99 % 996,9 hPa 0,0 l/m 0 min 0 min 46 W/m 19,3 km/h (3 Bft) 95,74 %
21.12.2018 11:56 11,2 C 10,6 C 10,0 C 99 % 996,9 hPa 0,0 l/m 0 min 2 min 41 W/m 29,0 km/h (5 Bft) 95,83 %
21.12.2018 11:58 11,3 C 10,6 C 10,0 C 99 % 997,0 hPa 0,0 l/m 0 min 2 min 44 W/m 25,7 km/h (4 Bft) 93,48 %
21.12.2018 12:00 11,3 C 10,6 C 10,0 C 99 % 997,0 hPa 0,2 l/m 0 min 0 min 50 W/m 25,7 km/h (4 Bft) 95,74 %
21.12.2018 12:02 11,3 C 10,6 C 10,0 C 99 % 996,9 hPa 0,0 l/m 0 min 0 min 49 W/m 35,4 km/h (5 Bft) 95,74 %
21.12.2018 12:04 11,4 C 10,6 C 10,0 C 99 % 996,9 hPa 0,0 l/m 0 min 0 min 46 W/m 16,1 km/h (3 Bft) 95,74 %
21.12.2018 12:08 11,4 C 10,6 C 10,0 C 99 % 997,0 hPa 0,0 l/m 0 min 0 min 37 W/m 35,4 km/h (5 Bft) 93,62 %
21.12.2018 12:10 11,5 C 11,1 C 10,0 C 99 % 996,9 hPa 0,0 l/m 0 min 0 min 37 W/m 29,0 km/h (5 Bft) 91,30 %
21.12.2018 12:12 11,5 C 11,1 C 10,0 C 99 % 996,9 hPa 0,0 l/m 0 min 0 min 32 W/m 29,0 km/h (5 Bft) 97,87 %
21.12.2018 12:14 11,6 C 11,1 C 10,0 C 99 % 996,9 hPa 0,0 l/m 0 min 0 min 38 W/m 25,7 km/h (4 Bft) 97,87 %
21.12.2018 12:16 11,6 C 11,1 C 10,0 C 99 % 996,8 hPa 0,0 l/m 0 min 0 min 45 W/m 25,7 km/h (4 Bft) 97,87 %
21.12.2018 12:18 11,6 C 11,1 C 10,6 C 99 % 996,9 hPa 0,0 l/m 0 min 0 min 45 W/m 29,0 km/h (5 Bft) 95,74 %
21.12.2018 12:20 11,7 C 11,1 C 10,6 C 99 % 996,9 hPa 0,0 l/m 0 min 0 min 44 W/m 32,2 km/h (5 Bft) 93,48 %
21.12.2018 12:22 11,7 C 11,1 C 10,6 C 99 % 996,9 hPa 0,0 l/m 0 min 0 min 48 W/m 32,2 km/h (5 Bft) 95,74 %
21.12.2018 12:24 11,7 C 11,1 C 10,6 C 99 % 996,9 hPa 0,0 l/m 0 min 0 min 54 W/m 29,0 km/h (5 Bft) 97,87 %
21.12.2018 12:26 11,7 C 11,1 C 10,6 C 99 % 996,8 hPa 0,0 l/m 0 min 2 min 58 W/m 29,0 km/h (5 Bft) 97,87 %
21.12.2018 12:28 11,8 C 11,1 C 10,6 C 99 % 996,9 hPa 0,0 l/m 0 min 2 min 55 W/m 25,7 km/h (4 Bft) 97,87 %
21.12.2018 12:30 11,8 C 11,1 C 10,6 C 99 % 996,9 hPa 0,0 l/m 0 min 2 min 59 W/m 29,0 km/h (5 Bft) 97,87 %
21.12.2018 12:32 11,9 C 11,1 C 10,6 C 99 % 996,9 hPa 0,0 l/m 0 min 2 min 54 W/m 32,2 km/h (5 Bft) 97,83 %
21.12.2018 12:34 11,9 C 11,1 C 10,6 C 99 % 996,9 hPa 0,0 l/m 0 min 2 min 55 W/m 38,6 km/h (5 Bft) 95,74 %
21.12.2018 12:36 11,9 C 11,1 C 10,6 C 99 % 996,8 hPa 0,0 l/m 0 min 2 min 57 W/m 32,2 km/h (5 Bft) 98,31 %
21.12.2018 12:38 12,0 C 11,7 C 10,6 C 99 % 996,8 hPa 0,0 l/m 0 min 2 min 63 W/m 25,7 km/h (4 Bft) 97,14 %
21.12.2018 12:40 12,0 C 11,7 C 10,6 C 99 % 996,9 hPa 0,0 l/m 0 min 2 min 71 W/m 35,4 km/h (5 Bft) 97,87 %
21.12.2018 12:42 12,1 C 11,7 C 10,6 C 99 % 996,9 hPa 0,0 l/m 0 min 2 min 60 W/m 41,8 km/h (6 Bft) 97,87 %
21.12.2018 12:44 12,1 C 11,7 C 10,6 C 99 % 996,8 hPa 0,0 l/m 0 min 2 min 75 W/m 25,7 km/h (4 Bft) 97,87 %
21.12.2018 12:46 12,1 C 11,7 C 10,6 C 99 % 996,8 hPa 0,0 l/m 0 min 2 min 70 W/m 32,2 km/h (5 Bft) 97,83 %
21.12.2018 12:48 12,2 C 11,7 C 11,1 C 99 % 996,9 hPa 0,0 l/m 0 min 2 min 66 W/m 35,4 km/h (5 Bft) 95,74 %
21.12.2018 12:50 12,2 C 11,7 C 11,1 C 99 % 996,7 hPa 0,0 l/m 0 min 2 min 72 W/m 22,5 km/h (4 Bft) 97,87 %
21.12.2018 12:52 12,2 C 11,7 C 11,1 C 99 % 996,7 hPa 0,0 l/m 0 min 2 min 80 W/m 32,2 km/h (5 Bft) 97,87 %
21.12.2018 12:54 12,3 C 11,7 C 11,1 C 99 % 996,7 hPa 0,0 l/m 0 min 2 min 75 W/m 29,0 km/h (5 Bft) 97,87 %
21.12.2018 12:56 12,3 C 11,7 C 11,1 C 99 % 996,6 hPa 0,0 l/m 0 min 0 min 67 W/m 32,2 km/h (5 Bft) 97,83 %
21.12.2018 12:58 12,3 C 11,7 C 11,1 C 99 % 996,7 hPa 0,0 l/m 0 min 0 min 54 W/m 54,7 km/h (7 Bft) 97,87 %
21.12.2018 13:00 12,3 C 11,7 C 11,1 C 99 % 996,7 hPa 0,0 l/m 0 min 0 min 50 W/m 25,7 km/h (4 Bft) 97,87 %
21.12.2018 13:02 12,4 C 11,7 C 11,1 C 99 % 996,7 hPa 0,0 l/m 0 min 2 min 50 W/m 32,2 km/h (5 Bft) 97,87 %
21.12.2018 13:04 12,4 C 11,7 C 11,1 C 99 % 996,7 hPa 0,0 l/m 0 min 2 min 53 W/m 38,6 km/h (5 Bft) 95,74 %
21.12.2018 13:06 12,4 C 11,7 C 11,1 C 99 % 996,9 hPa 0,0 l/m 0 min 2 min 59 W/m 32,2 km/h (5 Bft) 98,28 %
21.12.2018 13:08 12,4 C 11,7 C 11,1 C 99 % 996,7 hPa 0,0 l/m 0 min 2 min 76 W/m 48,3 km/h (6 Bft) 97,14 %
21.12.2018 13:10 12,4 C 11,7 C 11,1 C 99 % 996,7 hPa 0,0 l/m 0 min 2 min 77 W/m 29,0 km/h (5 Bft) 100,00 %
21.12.2018 13:12 12,4 C 11,7 C 11,1 C 99 % 996,8 hPa 0,0 l/m 0 min 0 min 88 W/m 29,0 km/h (5 Bft) 100,00 %
21.12.2018 13:14 12,5 C 11,7 C 11,1 C 99 % 996,8 hPa 0,0 l/m 0 min 0 min 85 W/m 32,2 km/h (5 Bft) 100,00 %
21.12.2018 13:16 12,5 C 11,7 C 11,1 C 99 % 996,7 hPa 0,0 l/m 0 min 0 min 79 W/m 32,2 km/h (5 Bft) 100,00 %
21.12.2018 13:18 12,5 C 12,2 C 11,1 C 99 % 996,8 hPa 0,0 l/m 0 min 0 min 70 W/m 35,4 km/h (5 Bft) 97,87 %
21.12.2018 13:20 12,5 C 12,2 C 11,1 C 99 % 997,0 hPa 0,0 l/m 0 min 0 min 66 W/m 48,3 km/h (6 Bft) 97,83 %
21.12.2018 13:22 12,6 C 12,2 C 11,1 C 99 % 997,0 hPa 0,0 l/m 0 min 0 min 66 W/m 25,7 km/h (4 Bft) 100,00 %
21.12.2018 13:24 12,6 C 12,2 C 11,1 C 99 % 996,9 hPa 0,0 l/m 0 min 0 min 58 W/m 22,5 km/h (4 Bft) 100,00 %
21.12.2018 13:26 12,6 C 11,7 C 11,1 C 99 % 997,0 hPa 0,0 l/m 0 min 0 min 44 W/m 29,0 km/h (5 Bft) 97,87 %
21.12.2018 13:28 12,6 C 11,7 C 11,1 C 99 % 996,9 hPa 0,0 l/m 0 min 0 min 45 W/m 32,2 km/h (5 Bft) 100,00 %
21.12.2018 13:30 12,6 C 11,7 C 11,1 C 98 % 997,1 hPa 0,0 l/m 0 min 0 min 41 W/m 25,7 km/h (4 Bft) 100,00 %
21.12.2018 13:32 12,7 C 11,7 C 11,1 C 98 % 997,0 hPa 0,0 l/m 0 min 0 min 40 W/m 38,6 km/h (5 Bft) 100,00 %
21.12.2018 13:34 12,7 C 11,7 C 11,1 C 98 % 997,0 hPa 0,0 l/m 0 min 0 min 50 W/m 25,7 km/h (4 Bft) 97,87 %
21.12.2018 13:36 12,7 C 12,2 C 11,1 C 98 % 997,1 hPa 0,0 l/m 0 min 0 min 55 W/m 16,1 km/h (3 Bft) 100,00 %
21.12.2018 13:38 12,7 C 12,2 C 11,1 C 98 % 997,1 hPa 0,0 l/m 0 min 0 min 66 W/m 45,1 km/h (6 Bft) 100,00 %
21.12.2018 13:40 12,7 C 12,2 C 11,1 C 98 % 997,1 hPa 0,0 l/m 0 min 0 min 81 W/m 41,8 km/h (6 Bft) 100,00 %
21.12.2018 13:42 12,8 C 12,2 C 11,1 C 98 % 997,1 hPa 0,0 l/m 0 min 0 min 86 W/m 22,5 km/h (4 Bft) 100,00 %
21.12.2018 13:44 12,8 C 12,2 C 11,1 C 98 % 997,1 hPa 0,0 l/m 0 min 0 min 84 W/m 25,7 km/h (4 Bft) 100,00 %
21.12.2018 13:46 12,8 C 12,2 C 11,7 C 98 % 997,1 hPa 0,0 l/m 0 min 0 min 86 W/m 19,3 km/h (3 Bft) 97,87 %
21.12.2018 13:48 12,8 C 12,2 C 11,7 C 98 % 997,0 hPa 0,0 l/m 0 min 0 min 79 W/m 32,2 km/h (5 Bft) 100,00 %
21.12.2018 13:50 12,8 C 12,2 C 11,7 C 97 % 997,1 hPa 0,0 l/m 0 min 0 min 75 W/m 25,7 km/h (4 Bft) 100,00 %
21.12.2018 13:52 12,8 C 12,2 C 11,1 C 97 % 997,1 hPa 0,0 l/m 0 min 0 min 66 W/m 19,3 km/h (3 Bft) 97,87 %
21.12.2018 13:54 12,8 C 12,2 C 11,1 C 97 % 997,1 hPa 0,0 l/m 0 min 0 min 48 W/m 32,2 km/h (5 Bft) 100,00 %
21.12.2018 13:56 12,8 C 11,7 C 11,1 C 97 % 997,1 hPa 0,0 l/m 0 min 0 min 44 W/m 29,0 km/h (5 Bft) 97,83 %
21.12.2018 13:58 12,8 C 11,7 C 11,1 C 97 % 997,1 hPa 0,0 l/m 0 min 2 min 50 W/m 22,5 km/h (4 Bft) 97,92 %
21.12.2018 14:00 12,8 C 11,7 C 11,1 C 97 % 997,3 hPa 0,0 l/m 0 min 2 min 64 W/m 32,2 km/h (5 Bft) 95,74 %
21.12.2018 14:02 12,8 C 11,7 C 11,1 C 97 % 997,2 hPa 0,0 l/m 0 min 2 min 68 W/m 16,1 km/h (3 Bft) 97,87 %
21.12.2018 14:04 12,8 C 11,7 C 11,1 C 97 % 997,2 hPa 0,0 l/m 0 min 2 min 52 W/m 25,7 km/h (4 Bft) 97,87 %
21.12.2018 14:06 12,8 C 11,7 C 11,1 C 97 % 997,3 hPa 0,0 l/m 0 min 2 min 27 W/m 22,5 km/h (4 Bft) 96,55 %
21.12.2018 14:08 12,8 C 11,7 C 11,1 C 97 % 997,4 hPa 0,0 l/m 0 min 2 min 37 W/m 16,1 km/h (3 Bft) 97,14 %
21.12.2018 14:10 12,8 C 11,7 C 11,1 C 97 % 997,4 hPa 0,0 l/m 0 min 2 min 74 W/m 22,5 km/h (4 Bft) 97,87 %
21.12.2018 14:12 12,8 C 11,7 C 11,1 C 97 % 997,4 hPa 0,0 l/m 0 min 2 min 79 W/m 32,2 km/h (5 Bft) 95,74 %
21.12.2018 14:14 12,8 C 11,7 C 11,1 C 96 % 997,4 hPa 0,0 l/m 0 min 2 min 68 W/m 29,0 km/h (5 Bft) 97,87 %
21.12.2018 14:16 12,7 C 11,7 C 11,1 C 96 % 997,4 hPa 0,0 l/m 0 min 2 min 70 W/m 41,8 km/h (6 Bft) 97,87 %
21.12.2018 14:18 12,7 C 11,7 C 11,1 C 96 % 997,6 hPa 0,0 l/m 0 min 2 min 71 W/m 25,7 km/h (4 Bft) 95,65 %
21.12.2018 14:20 12,7 C 11,7 C 11,1 C 96 % 997,5 hPa 0,0 l/m 0 min 2 min 64 W/m 29,0 km/h (5 Bft) 93,62 %
21.12.2018 14:22 12,7 C 12,2 C 11,1 C 96 % 997,4 hPa 0,0 l/m 0 min 2 min 57 W/m 25,7 km/h (4 Bft) 95,74 %
21.12.2018 14:24 12,7 C 12,2 C 11,1 C 96 % 997,5 hPa 0,0 l/m 0 min 2 min 56 W/m 38,6 km/h (5 Bft) 95,74 %
21.12.2018 14:26 12,7 C 12,8 C 11,1 C 96 % 997,5 hPa 0,0 l/m 0 min 0 min 52 W/m 22,5 km/h (4 Bft) 97,87 %
21.12.2018 14:28 12,7 C 12,8 C 11,1 C 95 % 997,4 hPa 0,0 l/m 0 min 0 min 55 W/m 32,2 km/h (5 Bft) 95,74 %
21.12.2018 14:30 12,7 C 12,8 C 11,1 C 95 % 997,4 hPa 0,0 l/m 0 min 0 min 55 W/m 22,5 km/h (4 Bft) 95,65 %
21.12.2018 14:32 12,7 C 12,8 C 11,1 C 95 % 997,5 hPa 0,0 l/m 0 min 2 min 50 W/m 45,1 km/h (6 Bft) 97,87 %
21.12.2018 14:34 12,7 C 12,8 C 11,1 C 93 % 997,5 hPa 0,0 l/m 0 min 2 min 56 W/m 29,0 km/h (5 Bft) 95,74 %
21.12.2018 14:36 12,7 C 12,8 C 11,1 C 93 % 997,5 hPa 0,0 l/m 0 min 0 min 64 W/m 32,2 km/h (5 Bft) 95,74 %
21.12.2018 14:38 12,7 C 12,8 C 10,6 C 91 % 997,6 hPa 0,0 l/m 0 min 0 min 64 W/m 32,2 km/h (5 Bft) 97,87 %
21.12.2018 14:40 12,8 C 12,8 C 10,6 C 90 % 997,7 hPa 0,0 l/m 0 min 2 min 53 W/m 32,2 km/h (5 Bft) 95,74 %
21.12.2018 14:42 12,8 C 12,8 C 10,6 C 89 % 997,7 hPa 0,0 l/m 0 min 0 min 47 W/m 32,2 km/h (5 Bft) 95,65 %
21.12.2018 14:44 12,9 C 12,8 C 10,6 C 88 % 997,8 hPa 0,0 l/m 0 min 0 min 50 W/m 41,8 km/h (6 Bft) 97,87 %
21.12.2018 14:46 12,9 C 12,8 C 10,6 C 87 % 997,7 hPa 0,0 l/m 0 min 0 min 46 W/m 48,3 km/h (6 Bft) 97,87 %
21.12.2018 14:48 13,0 C 12,8 C 10,6 C 86 % 997,8 hPa 0,0 l/m 0 min 0 min 47 W/m 38,6 km/h (5 Bft) 95,74 %
21.12.2018 14:50 13,0 C 12,8 C 10,6 C 86 % 997,7 hPa 0,0 l/m 0 min 0 min 52 W/m 35,4 km/h (5 Bft) 97,87 %
21.12.2018 14:52 13,1 C 12,8 C 10,6 C 85 % 997,9 hPa 0,0 l/m 0 min 0 min 51 W/m 35,4 km/h (5 Bft) 95,74 %
21.12.2018 14:54 13,1 C 12,8 C 10,6 C 85 % 997,9 hPa 0,0 l/m 0 min 0 min 47 W/m 22,5 km/h (4 Bft) 97,83 %
21.12.2018 14:56 13,1 C 12,8 C 10,6 C 85 % 997,8 hPa 0,0 l/m 0 min 0 min 45 W/m 32,2 km/h (5 Bft) 95,74 %
21.12.2018 14:58 13,0 C 12,8 C 10,6 C 85 % 998,0 hPa 0,0 l/m 0 min 0 min 46 W/m 25,7 km/h (4 Bft) 97,87 %
21.12.2018 15:00 13,0 C 12,8 C 10,6 C 85 % 997,8 hPa 0,0 l/m 0 min 0 min 53 W/m 29,0 km/h (5 Bft) 97,87 %
21.12.2018 15:02 13,0 C 12,8 C 10,6 C 84 % 998,0 hPa 0,0 l/m 0 min 0 min 53 W/m 45,1 km/h (6 Bft) 97,87 %
21.12.2018 15:04 13,0 C 12,8 C 10,6 C 84 % 998,0 hPa 0,0 l/m 0 min 0 min 52 W/m 29,0 km/h (5 Bft) 97,87 %
21.12.2018 15:06 12,9 C 12,2 C 10,6 C 84 % 998,1 hPa 0,0 l/m 0 min 0 min 51 W/m 29,0 km/h (5 Bft) 96,55 %
21.12.2018 15:08 12,9 C 12,2 C 10,6 C 83 % 998,2 hPa 0,0 l/m 0 min 0 min 49 W/m 38,6 km/h (5 Bft) 97,22 %
21.12.2018 15:10 12,9 C 12,8 C 10,6 C 83 % 998,2 hPa 0,0 l/m 0 min 0 min 47 W/m 32,2 km/h (5 Bft) 95,74 %
21.12.2018 15:12 12,9 C 12,2 C 10,6 C 83 % 998,2 hPa 0,0 l/m 0 min 0 min 42 W/m 41,8 km/h (6 Bft) 97,87 %
21.12.2018 15:14 12,9 C 12,2 C 10,6 C 83 % 998,3 hPa 0,0 l/m 0 min 0 min 36 W/m 29,0 km/h (5 Bft) 95,74 %
21.12.2018 15:16 12,9 C 12,2 C 10,6 C 83 % 998,3 hPa 0,0 l/m 0 min 0 min 31 W/m 22,5 km/h (4 Bft) 97,83 %
21.12.2018 15:18 12,8 C 12,2 C 10,6 C 83 % 998,3 hPa 0,0 l/m 0 min 0 min 28 W/m 22,5 km/h (4 Bft) 97,87 %
21.12.2018 15:20 12,8 C 12,2 C 10,6 C 83 % 998,4 hPa 0,0 l/m 0 min 0 min 24 W/m 38,6 km/h (5 Bft) 97,87 %
21.12.2018 15:22 12,8 C 12,2 C 10,6 C 83 % 998,4 hPa 0,0 l/m 0 min 0 min 22 W/m 19,3 km/h (3 Bft) 97,87 %
21.12.2018 15:24 12,8 C 12,2 C 11,1 C 83 % 998,4 hPa 0,0 l/m 0 min 0 min 17 W/m 22,5 km/h (4 Bft) 97,87 %
21.12.2018 15:26 12,8 C 12,2 C 11,1 C 83 % 998,5 hPa 0,0 l/m 0 min 0 min 13 W/m 22,5 km/h (4 Bft) 97,87 %
21.12.2018 15:28 12,8 C 12,2 C 11,1 C 83 % 998,5 hPa 0,0 l/m 0 min 0 min 14 W/m 41,8 km/h (6 Bft) 95,65 %
21.12.2018 15:30 12,8 C 12,2 C 11,1 C 83 % 998,5 hPa 0,0 l/m 0 min 0 min 11 W/m 25,7 km/h (4 Bft) 97,87 %
21.12.2018 15:32 12,7 C 12,2 C 11,1 C 83 % 998,6 hPa 0,0 l/m 0 min 0 min 14 W/m 16,1 km/h (3 Bft) 95,74 %
21.12.2018 15:34 12,7 C 12,2 C 11,1 C 83 % 998,6 hPa 0,0 l/m 0 min 0 min 12 W/m 29,0 km/h (5 Bft) 97,87 %
21.12.2018 15:36 12,7 C 12,2 C 11,1 C 83 % 998,7 hPa 0,0 l/m 0 min 0 min 14 W/m 22,5 km/h (4 Bft) 97,87 %
21.12.2018 15:38 12,7 C 12,2 C 11,1 C 83 % 998,8 hPa 0,0 l/m 0 min 0 min 19 W/m 16,1 km/h (3 Bft) 97,87 %
21.12.2018 15:40 12,7 C 12,2 C 11,1 C 83 % 998,7 hPa 0,0 l/m 0 min 0 min 21 W/m 19,3 km/h (3 Bft) 97,83 %
21.12.2018 15:42 12,7 C 12,2 C 11,1 C 84 % 998,8 hPa 0,0 l/m 0 min 0 min 21 W/m 16,1 km/h (3 Bft) 97,87 %
21.12.2018 15:44 12,7 C 12,2 C 11,1 C 84 % 998,8 hPa 0,0 l/m 0 min 0 min 25 W/m 19,3 km/h (3 Bft) 97,87 %
21.12.2018 15:46 12,7 C 12,2 C 11,1 C 84 % 998,8 hPa 0,0 l/m 0 min 0 min 26 W/m 32,2 km/h (5 Bft) 95,74 %
21.12.2018 15:48 12,6 C 12,2 C 11,1 C 84 % 998,8 hPa 0,0 l/m 0 min 0 min 23 W/m 29,0 km/h (5 Bft) 97,87 %
21.12.2018 15:50 12,6 C 12,2 C 11,1 C 83 % 998,8 hPa 0,0 l/m 0 min 0 min 19 W/m 35,4 km/h (5 Bft) 97,87 %
21.12.2018 15:52 12,6 C 12,2 C 11,1 C 82 % 998,9 hPa 0,0 l/m 0 min 0 min 15 W/m 29,0 km/h (5 Bft) 95,65 %
21.12.2018 15:54 12,6 C 12,2 C 11,1 C 82 % 999,0 hPa 0,0 l/m 0 min 0 min 10 W/m 25,7 km/h (4 Bft) 97,87 %
21.12.2018 15:56 12,6 C 12,2 C 11,1 C 81 % 999,1 hPa 0,0 l/m 0 min 0 min 8 W/m 32,2 km/h (5 Bft) 97,87 %
21.12.2018 15:58 12,6 C 12,2 C 11,1 C 80 % 999,1 hPa 0,0 l/m 0 min 0 min 7 W/m 29,0 km/h (5 Bft) 97,87 %
21.12.2018 16:00 12,6 C 12,2 C 11,1 C 80 % 999,0 hPa 0,0 l/m 0 min 0 min 5 W/m 45,1 km/h (6 Bft) 95,74 %
21.12.2018 16:02 12,6 C 12,2 C 11,1 C 80 % 999,2 hPa 0,0 l/m 0 min 0 min 7 W/m 48,3 km/h (6 Bft) 97,87 %
21.12.2018 16:04 12,7 C 12,2 C 11,1 C 79 % 999,2 hPa 0,0 l/m 0 min 0 min 5 W/m 25,7 km/h (4 Bft) 97,87 %
21.12.2018 16:06 12,7 C 12,2 C 11,1 C 80 % 999,3 hPa 0,0 l/m 0 min 0 min 2 W/m 22,5 km/h (4 Bft) 95,74 %
21.12.2018 16:08 12,7 C 12,2 C 11,1 C 80 % 999,3 hPa 0,0 l/m 0 min 0 min 0 W/m 45,1 km/h (6 Bft) 97,87 %
21.12.2018 16:10 12,7 C 12,2 C 11,1 C 80 % 999,4 hPa 0,0 l/m 0 min 0 min 0 W/m 19,3 km/h (3 Bft) 93,62 %
21.12.2018 16:12 12,7 C 12,2 C 11,1 C 80 % 999,3 hPa 0,0 l/m 0 min 0 min 3 W/m 29,0 km/h (5 Bft) 97,87 %
21.12.2018 16:14 12,7 C 12,2 C 11,1 C 80 % 999,5 hPa 0,0 l/m 0 min 0 min 5 W/m 22,5 km/h (4 Bft) 97,83 %
21.12.2018 16:16 12,6 C 12,2 C 11,1 C 80 % 999,4 hPa 0,0 l/m 0 min 0 min 1 W/m 35,4 km/h (5 Bft) 100,00 %
21.12.2018 16:18 12,6 C 11,7 C 11,1 C 80 % 999,4 hPa 0,0 l/m 0 min 0 min 0 W/m 19,3 km/h (3 Bft) 100,00 %
21.12.2018 16:20 12,6 C 12,2 C 11,1 C 80 % 999,4 hPa 0,0 l/m 0 min 0 min 0 W/m 35,4 km/h (5 Bft) 100,00 %
21.12.2018 16:22 12,6 C 12,2 C 11,1 C 80 % 999,4 hPa 0,0 l/m 0 min 0 min 0 W/m 29,0 km/h (5 Bft) 95,74 %
21.12.2018 16:24 12,6 C 11,7 C 11,1 C 80 % 999,5 hPa 0,0 l/m 0 min 0 min 0 W/m 19,3 km/h (3 Bft) 100,00 %
21.12.2018 16:26 12,6 C 11,7 C 11,1 C 81 % 999,5 hPa 0,0 l/m 0 min 0 min 0 W/m 22,5 km/h (4 Bft) 97,83 %
21.12.2018 16:28 12,5 C 11,7 C 11,1 C 81 % 999,5 hPa 0,0 l/m 0 min 0 min 0 W/m 22,5 km/h (4 Bft) 97,87 %
21.12.2018 16:30 12,5 C 11,7 C 10,6 C 81 % 999,6 hPa 0,0 l/m 0 min 0 min 0 W/m 29,0 km/h (5 Bft) 97,87 %
21.12.2018 16:32 12,5 C 11,7 C 10,6 C 82 % 999,5 hPa 0,0 l/m 0 min 0 min 0 W/m 19,3 km/h (3 Bft) 95,74 %
21.12.2018 16:34 12,4 C 11,7 C 10,6 C 82 % 999,6 hPa 0,0 l/m 0 min 0 min 0 W/m 22,5 km/h (4 Bft) 97,87 %
21.12.2018 16:36 12,4 C 11,7 C 10,6 C 82 % 999,7 hPa 0,0 l/m 0 min 0 min 0 W/m 19,3 km/h (3 Bft) 97,87 %
21.12.2018 16:38 12,4 C 11,7 C 10,6 C 82 % 999,7 hPa 0,0 l/m 0 min 0 min 0 W/m 22,5 km/h (4 Bft) 97,83 %
21.12.2018 16:40 12,4 C 11,7 C 10,6 C 82 % 999,7 hPa 0,0 l/m 0 min 0 min 0 W/m 16,1 km/h (3 Bft) 97,87 %
21.12.2018 16:42 12,4 C 11,7 C 10,6 C 82 % 999,6 hPa 0,0 l/m 0 min 0 min 0 W/m 25,7 km/h (4 Bft) 95,74 %
21.12.2018 16:44 12,4 C 11,7 C 10,6 C 82 % 999,7 hPa 0,0 l/m 0 min 0 min 0 W/m 29,0 km/h (5 Bft) 97,87 %
21.12.2018 16:46 12,3 C 11,7 C 10,6 C 82 % 999,8 hPa 0,0 l/m 0 min 0 min 0 W/m 32,2 km/h (5 Bft) 97,87 %
21.12.2018 16:48 12,3 C 11,7 C 10,6 C 82 % 999,8 hPa 0,0 l/m 0 min 0 min 0 W/m 29,0 km/h (5 Bft) 97,87 %
21.12.2018 16:50 12,3 C 11,7 C 10,6 C 82 % 999,8 hPa 0,0 l/m 0 min 0 min 0 W/m 19,3 km/h (3 Bft) 97,83 %
21.12.2018 16:52 12,3 C 11,7 C 10,6 C 82 % 1000,0 hPa 0,0 l/m 0 min 0 min 0 W/m 29,0 km/h (5 Bft) 95,74 %
21.12.2018 16:54 12,3 C 11,7 C 10,6 C 82 % 1000,0 hPa 0,0 l/m 0 min 0 min 0 W/m 22,5 km/h (4 Bft) 97,87 %
21.12.2018 16:56 12,2 C 11,7 C 10,6 C 82 % 999,9 hPa 0,0 l/m 0 min 0 min 0 W/m 25,7 km/h (4 Bft) 97,87 %
21.12.2018 16:58 12,2 C 11,7 C 10,6 C 82 % 999,8 hPa 0,0 l/m 0 min 0 min 0 W/m 29,0 km/h (5 Bft) 95,74 %
21.12.2018 17:00 12,2 C 11,7 C 10,6 C 81 % 1000,0 hPa 0,0 l/m 0 min 0 min 0 W/m 32,2 km/h (5 Bft) 97,87 %
21.12.2018 17:02 12,2 C 11,7 C 10,6 C 82 % 1000,1 hPa 0,0 l/m 0 min 0 min 0 W/m 25,7 km/h (4 Bft) 97,83 %
21.12.2018 17:04 12,2 C 11,7 C 10,6 C 81 % 1000,1 hPa 0,0 l/m 0 min 0 min 0 W/m 22,5 km/h (4 Bft) 97,87 %
21.12.2018 17:06 12,2 C 11,7 C 10,6 C 81 % 1000,1 hPa 0,0 l/m 0 min 0 min 0 W/m 19,3 km/h (3 Bft) 93,62 %
21.12.2018 17:08 12,2 C 11,7 C 10,6 C 81 % 1000,2 hPa 0,0 l/m 0 min 0 min 0 W/m 29,0 km/h (5 Bft) 93,62 %
21.12.2018 17:10 12,1 C 11,7 C 10,6 C 81 % 1000,1 hPa 0,0 l/m 0 min 0 min 0 W/m 35,4 km/h (5 Bft) 100,00 %
21.12.2018 17:12 12,1 C 11,7 C 10,6 C 81 % 1000,4 hPa 0,0 l/m 0 min 0 min 0 W/m 29,0 km/h (5 Bft) 97,87 %
21.12.2018 17:14 12,1 C 11,7 C 10,6 C 81 % 1000,4 hPa 0,0 l/m 0 min 0 min 0 W/m 35,4 km/h (5 Bft) 97,87 %
21.12.2018 17:16 12,1 C 11,7 C 10,6 C 80 % 1000,5 hPa 0,0 l/m 0 min 0 min 0 W/m 16,1 km/h (3 Bft) 93,48 %
21.12.2018 17:18 12,1 C 11,7 C 10,6 C 81 % 1000,6 hPa 0,0 l/m 0 min 0 min 0 W/m 32,2 km/h (5 Bft) 100,00 %
21.12.2018 17:20 12,1 C 11,7 C 10,6 C 80 % 1000,6 hPa 0,0 l/m 0 min 0 min 0 W/m 32,2 km/h (5 Bft) 97,87 %
21.12.2018 17:22 12,1 C 11,7 C 10,6 C 79 % 1000,6 hPa 0,0 l/m 0 min 0 min 0 W/m 35,4 km/h (5 Bft) 100,00 %
21.12.2018 17:24 12,1 C 11,7 C 10,6 C 79 % 1000,4 hPa 0,0 l/m 0 min 0 min 0 W/m 35,4 km/h (5 Bft) 93,62 %
21.12.2018 17:26 12,1 C 11,7 C 10,6 C 80 % 1000,5 hPa 0,0 l/m 0 min 0 min 0 W/m 25,7 km/h (4 Bft) 95,65 %
21.12.2018 17:28 12,1 C 11,7 C 10,6 C 80 % 1000,5 hPa 0,0 l/m 0 min 0 min 0 W/m 19,3 km/h (3 Bft) 95,74 %
21.12.2018 17:30 12,1 C 11,1 C 10,6 C 80 % 1000,5 hPa 0,0 l/m 0 min 0 min 0 W/m 22,5 km/h (4 Bft) 97,87 %
21.12.2018 17:32 12,1 C 11,1 C 10,6 C 80 % 1000,6 hPa 0,0 l/m 0 min 0 min 0 W/m 25,7 km/h (4 Bft) 97,87 %
21.12.2018 17:34 12,0 C 11,1 C 10,6 C 80 % 1000,6 hPa 0,0 l/m 0 min 0 min 0 W/m 22,5 km/h (4 Bft) 97,87 %
21.12.2018 17:36 12,0 C 11,1 C 10,6 C 81 % 1000,5 hPa 0,0 l/m 0 min 0 min 0 W/m 25,7 km/h (4 Bft) 97,87 %
21.12.2018 17:38 11,9 C 11,1 C 10,6 C 81 % 1000,6 hPa 0,0 l/m 0 min 0 min 0 W/m 16,1 km/h (3 Bft) 95,65 %
21.12.2018 17:40 11,9 C 11,1 C 10,6 C 81 % 1000,7 hPa 0,0 l/m 0 min 0 min 0 W/m 35,4 km/h (5 Bft) 95,74 %
21.12.2018 17:42 11,9 C 11,1 C 10,6 C 81 % 1000,7 hPa 0,0 l/m 0 min 0 min 0 W/m 22,5 km/h (4 Bft) 97,87 %
21.12.2018 17:44 11,9 C 11,1 C 10,0 C 81 % 1000,7 hPa 0,0 l/m 0 min 0 min 0 W/m 16,1 km/h (3 Bft) 97,87 %
21.12.2018 17:46 11,8 C 11,1 C 10,0 C 80 % 1000,8 hPa 0,0 l/m 0 min 0 min 0 W/m 25,7 km/h (4 Bft) 95,74 %
21.12.2018 17:48 11,8 C 11,1 C 10,6 C 80 % 1000,9 hPa 0,0 l/m 0 min 0 min 0 W/m 35,4 km/h (5 Bft) 97,87 %
21.12.2018 17:50 11,8 C 11,1 C 10,0 C 80 % 1001,0 hPa 0,0 l/m 0 min 0 min 0 W/m 16,1 km/h (3 Bft) 97,83 %
21.12.2018 17:52 11,8 C 11,1 C 10,0 C 80 % 1001,0 hPa 0,0 l/m 0 min 0 min 0 W/m 35,4 km/h (5 Bft) 97,87 %
21.12.2018 17:54 11,8 C 11,1 C 10,6 C 80 % 1001,1 hPa 0,0 l/m 0 min 0 min 0 W/m 19,3 km/h (3 Bft) 95,74 %
21.12.2018 17:56 11,8 C 11,1 C 10,0 C 80 % 1001,0 hPa 0,0 l/m 0 min 0 min 0 W/m 22,5 km/h (4 Bft) 97,87 %
21.12.2018 17:58 11,8 C 11,1 C 10,0 C 80 % 1001,2 hPa 0,0 l/m 0 min 0 min 0 W/m 19,3 km/h (3 Bft) 97,87 %
21.12.2018 18:00 11,8 C 11,1 C 10,0 C 80 % 1001,2 hPa 0,0 l/m 0 min 0 min 0 W/m 22,5 km/h (4 Bft) 97,87 %
21.12.2018 18:02 11,8 C 11,1 C 10,0 C 80 % 1001,2 hPa 0,0 l/m 0 min 0 min 0 W/m 29,0 km/h (5 Bft) 95,65 %
21.12.2018 18:04 11,7 C 11,1 C 10,0 C 80 % 1001,2 hPa 0,0 l/m 0 min 0 min 0 W/m 29,0 km/h (5 Bft) 97,87 %
21.12.2018 18:08 11,7 C 11,1 C 10,0 C 80 % 1001,3 hPa 0,0 l/m 0 min 0 min 0 W/m 35,4 km/h (5 Bft) 97,87 %
21.12.2018 18:10 11,7 C 11,1 C 10,0 C 80 % 1001,2 hPa 0,0 l/m 0 min 0 min 0 W/m 32,2 km/h (5 Bft) 100,00 %
21.12.2018 18:12 11,7 C 11,1 C 10,0 C 80 % 1001,2 hPa 0,0 l/m 0 min 0 min 0 W/m 25,7 km/h (4 Bft) 100,00 %
21.12.2018 18:14 11,7 C 11,1 C 10,0 C 80 % 1001,3 hPa 0,0 l/m 0 min 0 min 0 W/m 16,1 km/h (3 Bft) 97,83 %
21.12.2018 18:16 11,7 C 11,1 C 10,0 C 80 % 1001,4 hPa 0,0 l/m 0 min 0 min 0 W/m 38,6 km/h (5 Bft) 100,00 %
21.12.2018 18:18 11,7 C 11,1 C 10,0 C 80 % 1001,3 hPa 0,0 l/m 0 min 0 min 0 W/m 19,3 km/h (3 Bft) 100,00 %
21.12.2018 18:20 11,7 C 11,1 C 10,0 C 80 % 1001,4 hPa 0,0 l/m 0 min 0 min 0 W/m 41,8 km/h (6 Bft) 100,00 %
21.12.2018 18:22 11,7 C 11,1 C 10,0 C 80 % 1001,5 hPa 0,0 l/m 0 min 0 min 0 W/m 22,5 km/h (4 Bft) 100,00 %
21.12.2018 18:24 11,7 C 11,1 C 10,0 C 80 % 1001,5 hPa 0,0 l/m 0 min 0 min 0 W/m 32,2 km/h (5 Bft) 100,00 %
21.12.2018 18:26 11,6 C 11,1 C 10,0 C 80 % 1001,5 hPa 0,0 l/m 0 min 2 min 0 W/m 22,5 km/h (4 Bft) 100,00 %
21.12.2018 18:28 11,6 C 11,1 C 10,0 C 80 % 1001,6 hPa 0,0 l/m 0 min 0 min 0 W/m 22,5 km/h (4 Bft) 100,00 %
21.12.2018 18:30 11,6 C 11,1 C 10,0 C 81 % 1001,7 hPa 0,0 l/m 0 min 2 min 0 W/m 16,1 km/h (3 Bft) 100,00 %
21.12.2018 18:32 11,6 C 10,6 C 10,0 C 81 % 1001,8 hPa 0,0 l/m 0 min 2 min 0 W/m 25,7 km/h (4 Bft) 100,00 %
21.12.2018 18:34 11,6 C 10,6 C 9,4 C 81 % 1001,8 hPa 0,0 l/m 0 min 2 min 0 W/m 29,0 km/h (5 Bft) 100,00 %
21.12.2018 18:36 11,6 C 10,6 C 9,4 C 81 % 1001,7 hPa 0,0 l/m 0 min 2 min 0 W/m 29,0 km/h (5 Bft) 97,83 %
21.12.2018 18:38 11,6 C 10,6 C 9,4 C 82 % 1001,8 hPa 0,0 l/m 0 min 2 min 0 W/m 29,0 km/h (5 Bft) 100,00 %
21.12.2018 18:40 11,5 C 10,6 C 9,4 C 82 % 1001,9 hPa 0,0 l/m 0 min 2 min 0 W/m 25,7 km/h (4 Bft) 100,00 %
21.12.2018 18:42 11,5 C 10,6 C 10,0 C 82 % 1002,0 hPa 0,0 l/m 0 min 0 min 0 W/m 32,2 km/h (5 Bft) 97,87 %
21.12.2018 18:44 11,4 C 10,6 C 10,0 C 82 % 1002,0 hPa 0,0 l/m 0 min 0 min 0 W/m 19,3 km/h (3 Bft) 97,87 %
21.12.2018 18:46 11,4 C 10,6 C 9,4 C 82 % 1002,1 hPa 0,0 l/m 0 min 2 min 0 W/m 45,1 km/h (6 Bft) 97,87 %
21.12.2018 18:48 11,4 C 10,6 C 9,4 C 82 % 1002,1 hPa 0,0 l/m 0 min 2 min 0 W/m 35,4 km/h (5 Bft) 97,87 %
21.12.2018 18:50 11,4 C 10,6 C 9,4 C 82 % 1002,2 hPa 0,0 l/m 0 min 2 min 0 W/m 32,2 km/h (5 Bft) 97,83 %
21.12.2018 18:52 11,3 C 10,6 C 9,4 C 82 % 1002,3 hPa 0,0 l/m 0 min 0 min 0 W/m 22,5 km/h (4 Bft) 97,87 %
21.12.2018 18:54 11,3 C 10,6 C 9,4 C 82 % 1002,4 hPa 0,0 l/m 0 min 0 min 0 W/m 22,5 km/h (4 Bft) 97,87 %
21.12.2018 18:56 11,3 C 10,6 C 9,4 C 83 % 1002,4 hPa 0,0 l/m 0 min 0 min 0 W/m 19,3 km/h (3 Bft) 97,87 %
21.12.2018 18:58 11,3 C 10,6 C 9,4 C 82 % 1002,2 hPa 0,0 l/m 0 min 0 min 0 W/m 35,4 km/h (5 Bft) 97,87 %
21.12.2018 19:00 11,3 C 10,6 C 10,0 C 82 % 1002,3 hPa 0,0 l/m 0 min 0 min 0 W/m 19,3 km/h (3 Bft) 97,83 %
21.12.2018 19:02 11,3 C 10,6 C 10,0 C 82 % 1002,4 hPa 0,0 l/m 0 min 0 min 0 W/m 19,3 km/h (3 Bft) 97,87 %
21.12.2018 19:04 11,3 C 10,6 C 10,0 C 82 % 1002,4 hPa 0,0 l/m 0 min 0 min 0 W/m 16,1 km/h (3 Bft) 97,87 %
21.12.2018 19:06 11,3 C 10,6 C 10,0 C 82 % 1002,6 hPa 0,0 l/m 0 min 0 min 0 W/m 16,1 km/h (3 Bft) 95,74 %
21.12.2018 19:08 11,3 C 10,6 C 10,0 C 82 % 1002,6 hPa 0,0 l/m 0 min 0 min 0 W/m 19,3 km/h (3 Bft) 95,74 %
21.12.2018 19:10 11,3 C 10,6 C 10,0 C 82 % 1002,6 hPa 0,0 l/m 0 min 0 min 0 W/m 25,7 km/h (4 Bft) 95,74 %
21.12.2018 19:12 11,3 C 10,6 C 10,0 C 82 % 1002,6 hPa 0,0 l/m 0 min 2 min 0 W/m 19,3 km/h (3 Bft) 95,65 %
21.12.2018 19:14 11,3 C 10,6 C 10,0 C 83 % 1002,6 hPa 0,0 l/m 0 min 2 min 0 W/m 29,0 km/h (5 Bft) 95,74 %
21.12.2018 19:16 11,3 C 10,0 C 9,4 C 83 % 1002,7 hPa 0,0 l/m 0 min 2 min 0 W/m 35,4 km/h (5 Bft) 95,74 %
21.12.2018 19:18 11,3 C 9,4 C 8,9 C 83 % 1002,7 hPa 0,0 l/m 0 min 2 min 0 W/m 19,3 km/h (3 Bft) 93,62 %
21.12.2018 19:20 11,3 C 9,4 C 8,9 C 84 % 1002,8 hPa 0,0 l/m 0 min 2 min 0 W/m 22,5 km/h (4 Bft) 95,45 %
21.12.2018 19:22 11,2 C 9,4 C 8,9 C 84 % 1002,8 hPa 0,0 l/m 0 min 2 min 0 W/m 22,5 km/h (4 Bft) 95,65 %
21.12.2018 19:24 11,2 C 9,4 C 8,9 C 85 % 1002,9 hPa 0,0 l/m 0 min 2 min 0 W/m 25,7 km/h (4 Bft) 95,74 %
21.12.2018 19:26 11,2 C 9,4 C 8,9 C 85 % 1002,9 hPa 0,0 l/m 0 min 2 min 0 W/m 22,5 km/h (4 Bft) 95,74 %
21.12.2018 19:28 11,1 C 10,0 C 8,9 C 85 % 1002,9 hPa 0,0 l/m 0 min 2 min 0 W/m 29,0 km/h (5 Bft) 95,74 %
21.12.2018 19:30 11,1 C 10,0 C 9,4 C 85 % 1002,9 hPa 0,0 l/m 0 min 2 min 0 W/m 29,0 km/h (5 Bft) 93,62 %
21.12.2018 19:32 11,1 C 10,0 C 9,4 C 85 % 1002,9 hPa 0,0 l/m 0 min 2 min 0 W/m 16,1 km/h (3 Bft) 95,74 %
21.12.2018 19:34 11,1 C 10,6 C 9,4 C 84 % 1003,0 hPa 0,0 l/m 0 min 2 min 0 W/m 25,7 km/h (4 Bft) 95,65 %
21.12.2018 19:36 11,1 C 10,6 C 9,4 C 84 % 1003,0 hPa 0,0 l/m 0 min 2 min 0 W/m 38,6 km/h (5 Bft) 91,49 %
21.12.2018 19:38 11,1 C 10,6 C 10,0 C 84 % 1003,1 hPa 0,0 l/m 0 min 2 min 0 W/m 25,7 km/h (4 Bft) 95,74 %
21.12.2018 19:40 11,1 C 10,6 C 10,0 C 84 % 1003,0 hPa 0,0 l/m 0 min 0 min 0 W/m 25,7 km/h (4 Bft) 95,74 %
21.12.2018 19:42 11,1 C 10,6 C 10,0 C 84 % 1003,2 hPa 0,0 l/m 0 min 0 min 0 W/m 22,5 km/h (4 Bft) 93,62 %
21.12.2018 19:44 11,2 C 10,6 C 10,0 C 84 % 1003,0 hPa 0,0 l/m 0 min 2 min 0 W/m 29,0 km/h (5 Bft) 97,87 %
21.12.2018 19:46 11,2 C 10,6 C 10,0 C 83 % 1003,3 hPa 0,0 l/m 0 min 0 min 0 W/m 29,0 km/h (5 Bft) 93,48 %
21.12.2018 19:48 11,2 C 10,6 C 10,0 C 83 % 1003,3 hPa 0,0 l/m 0 min 0 min 0 W/m 22,5 km/h (4 Bft) 97,87 %
21.12.2018 19:50 11,2 C 10,6 C 10,0 C 83 % 1003,3 hPa 0,0 l/m 0 min 0 min 0 W/m 22,5 km/h (4 Bft) 97,87 %
21.12.2018 19:52 11,2 C 10,6 C 10,0 C 84 % 1003,4 hPa 0,0 l/m 0 min 0 min 0 W/m 22,5 km/h (4 Bft) 95,74 %
21.12.2018 19:54 11,2 C 10,6 C 10,0 C 84 % 1003,4 hPa 0,0 l/m 0 min 0 min 0 W/m 22,5 km/h (4 Bft) 97,87 %
21.12.2018 19:56 11,2 C 10,6 C 10,0 C 84 % 1003,4 hPa 0,0 l/m 0 min 0 min 0 W/m 22,5 km/h (4 Bft) 95,74 %
21.12.2018 19:58 11,2 C 10,6 C 10,0 C 84 % 1003,4 hPa 0,0 l/m 0 min 0 min 0 W/m 29,0 km/h (5 Bft) 100,00 %
21.12.2018 20:00 11,2 C 10,6 C 10,0 C 84 % 1003,3 hPa 0,0 l/m 0 min 0 min 0 W/m 22,5 km/h (4 Bft) 97,87 %
21.12.2018 20:02 11,2 C 10,6 C 10,0 C 84 % 1003,5 hPa 0,0 l/m 0 min 0 min 0 W/m 38,6 km/h (5 Bft) 100,00 %
21.12.2018 20:04 11,2 C 10,6 C 10,0 C 84 % 1003,5 hPa 0,0 l/m 0 min 0 min 0 W/m 32,2 km/h (5 Bft) 100,00 %
21.12.2018 20:06 11,2 C 10,6 C 10,0 C 83 % 1003,5 hPa 0,0 l/m 0 min 0 min 0 W/m 32,2 km/h (5 Bft) 93,62 %
21.12.2018 20:08 11,2 C 10,6 C 10,0 C 83 % 1003,4 hPa 0,0 l/m 0 min 0 min 0 W/m 22,5 km/h (4 Bft) 95,65 %
21.12.2018 20:10 11,2 C 10,6 C 10,0 C 83 % 1003,5 hPa 0,0 l/m 0 min 0 min 0 W/m 19,3 km/h (3 Bft) 97,87 %
21.12.2018 20:12 11,2 C 10,6 C 10,0 C 82 % 1003,3 hPa 0,0 l/m 0 min 0 min 0 W/m 41,8 km/h (6 Bft) 93,62 %
21.12.2018 20:14 11,2 C 10,6 C 10,0 C 82 % 1003,5 hPa 0,0 l/m 0 min 0 min 0 W/m 29,0 km/h (5 Bft) 97,87 %
21.12.2018 20:16 11,2 C 10,6 C 10,0 C 82 % 1003,3 hPa 0,0 l/m 0 min 0 min 0 W/m 29,0 km/h (5 Bft) 95,74 %
21.12.2018 20:18 11,3 C 10,6 C 10,0 C 82 % 1003,5 hPa 0,0 l/m 0 min 0 min 0 W/m 25,7 km/h (4 Bft) 95,74 %
21.12.2018 20:20 11,3 C 10,6 C 10,0 C 81 % 1003,5 hPa 0,0 l/m 0 min 0 min 0 W/m 25,7 km/h (4 Bft) 97,83 %
21.12.2018 20:22 11,3 C 10,6 C 10,0 C 81 % 1003,4 hPa 0,0 l/m 0 min 0 min 0 W/m 25,7 km/h (4 Bft) 97,87 %
21.12.2018 20:24 11,3 C 10,6 C 10,0 C 81 % 1003,6 hPa 0,0 l/m 0 min 0 min 0 W/m 29,0 km/h (5 Bft) 97,87 %
21.12.2018 20:26 11,3 C 10,6 C 10,0 C 81 % 1003,5 hPa 0,0 l/m 0 min 0 min 0 W/m 22,5 km/h (4 Bft) 97,87 %
21.12.2018 20:28 11,3 C 10,6 C 10,0 C 80 % 1003,5 hPa 0,0 l/m 0 min 0 min 0 W/m 25,7 km/h (4 Bft) 95,74 %
21.12.2018 20:30 11,3 C 10,6 C 10,0 C 80 % 1003,5 hPa 0,0 l/m 0 min 0 min 0 W/m 25,7 km/h (4 Bft) 95,74 %
21.12.2018 20:32 11,3 C 10,6 C 10,0 C 80 % 1003,5 hPa 0,0 l/m 0 min 0 min 0 W/m 22,5 km/h (4 Bft) 97,83 %
21.12.2018 20:34 11,3 C 11,1 C 10,0 C 80 % 1003,6 hPa 0,0 l/m 0 min 0 min 0 W/m 25,7 km/h (4 Bft) 97,87 %
21.12.2018 20:36 11,3 C 10,6 C 10,0 C 80 % 1003,6 hPa 0,0 l/m 0 min 0 min 0 W/m 25,7 km/h (4 Bft) 97,87 %
21.12.2018 20:38 11,3 C 11,1 C 10,0 C 80 % 1003,6 hPa 0,0 l/m 0 min 0 min 0 W/m 32,2 km/h (5 Bft) 97,87 %
21.12.2018 20:40 11,3 C 10,6 C 10,0 C 80 % 1003,6 hPa 0,0 l/m 0 min 0 min 0 W/m 22,5 km/h (4 Bft) 97,87 %
21.12.2018 20:42 11,3 C 10,6 C 10,0 C 80 % 1003,6 hPa 0,0 l/m 0 min 0 min 0 W/m 32,2 km/h (5 Bft) 93,62 %
21.12.2018 20:44 11,3 C 10,6 C 10,0 C 80 % 1003,6 hPa 0,0 l/m 0 min 0 min 0 W/m 25,7 km/h (4 Bft) 97,83 %
21.12.2018 20:46 11,3 C 10,6 C 10,0 C 80 % 1003,7 hPa 0,0 l/m 0 min 0 min 0 W/m 22,5 km/h (4 Bft) 97,87 %
21.12.2018 20:48 11,3 C 10,6 C 10,0 C 80 % 1003,7 hPa 0,0 l/m 0 min 0 min 0 W/m 19,3 km/h (3 Bft) 97,87 %
21.12.2018 20:50 11,3 C 10,6 C 10,0 C 80 % 1003,7 hPa 0,0 l/m 0 min 0 min 0 W/m 41,8 km/h (6 Bft) 100,00 %
21.12.2018 20:52 11,3 C 10,6 C 10,0 C 79 % 1003,7 hPa 0,0 l/m 0 min 0 min 0 W/m 22,5 km/h (4 Bft) 100,00 %
21.12.2018 20:54 11,3 C 10,6 C 10,0 C 79 % 1003,7 hPa 0,0 l/m 0 min 0 min 0 W/m 25,7 km/h (4 Bft) 100,00 %
21.12.2018 20:56 11,3 C 10,6 C 10,0 C 79 % 1003,9 hPa 0,0 l/m 0 min 0 min 0 W/m 22,5 km/h (4 Bft) 97,83 %
21.12.2018 20:58 11,3 C 10,6 C 10,0 C 79 % 1003,8 hPa 0,0 l/m 0 min 0 min 0 W/m 22,5 km/h (4 Bft) 100,00 %
21.12.2018 21:00 11,3 C 10,6 C 10,0 C 79 % 1003,8 hPa 0,0 l/m 0 min 0 min 0 W/m 29,0 km/h (5 Bft) 100,00 %
21.12.2018 21:02 11,3 C 10,6 C 10,0 C 79 % 1003,9 hPa 0,0 l/m 0 min 0 min 0 W/m 22,5 km/h (4 Bft) 100,00 %
21.12.2018 21:04 11,3 C 10,6 C 10,0 C 79 % 1003,9 hPa 0,0 l/m 0 min 0 min 0 W/m 22,5 km/h (4 Bft) 100,00 %
21.12.2018 21:06 11,3 C 10,6 C 10,0 C 79 % 1003,8 hPa 0,0 l/m 0 min 0 min 0 W/m 38,6 km/h (5 Bft) 100,00 %
21.12.2018 21:08 11,3 C 10,6 C 10,0 C 79 % 1003,8 hPa 0,0 l/m 0 min 0 min 0 W/m 22,5 km/h (4 Bft) 100,00 %
21.12.2018 21:10 11,3 C 10,6 C 10,0 C 79 % 1003,8 hPa 0,0 l/m 0 min 0 min 0 W/m 16,1 km/h (3 Bft) 100,00 %
21.12.2018 21:12 11,3 C 10,6 C 10,0 C 79 % 1003,9 hPa 0,0 l/m 0 min 0 min 0 W/m 16,1 km/h (3 Bft) 100,00 %
21.12.2018 21:14 11,3 C 10,6 C 10,0 C 79 % 1003,9 hPa 0,0 l/m 0 min 0 min 0 W/m 16,1 km/h (3 Bft) 100,00 %
21.12.2018 21:16 11,3 C 10,6 C 10,0 C 79 % 1004,0 hPa 0,0 l/m 0 min 0 min 0 W/m 25,7 km/h (4 Bft) 100,00 %
21.12.2018 21:18 11,3 C 10,6 C 10,0 C 79 % 1004,0 hPa 0,0 l/m 0 min 0 min 0 W/m 16,1 km/h (3 Bft) 100,00 %
21.12.2018 21:20 11,3 C 10,6 C 10,0 C 79 % 1004,1 hPa 0,0 l/m 0 min 0 min 0 W/m 22,5 km/h (4 Bft) 100,00 %
21.12.2018 21:22 11,3 C 10,6 C 10,0 C 79 % 1004,0 hPa 0,0 l/m 0 min 0 min 0 W/m 19,3 km/h (3 Bft) 97,87 %
21.12.2018 21:24 11,3 C 10,6 C 10,0 C 79 % 1004,1 hPa 0,0 l/m 0 min 0 min 0 W/m 16,1 km/h (3 Bft) 95,74 %
21.12.2018 21:26 11,3 C 10,6 C 10,0 C 80 % 1004,0 hPa 0,0 l/m 0 min 0 min 0 W/m 25,7 km/h (4 Bft) 97,87 %
21.12.2018 21:28 11,3 C 10,6 C 10,0 C 80 % 1004,1 hPa 0,0 l/m 0 min 0 min 0 W/m 19,3 km/h (3 Bft) 100,00 %
21.12.2018 21:30 11,3 C 10,6 C 10,0 C 80 % 1004,1 hPa 0,0 l/m 0 min 0 min 0 W/m 19,3 km/h (3 Bft) 100,00 %
21.12.2018 21:32 11,3 C 10,6 C 10,0 C 80 % 1004,1 hPa 0,0 l/m 0 min 0 min 0 W/m 16,1 km/h (3 Bft) 100,00 %
21.12.2018 21:34 11,3 C 10,6 C 10,0 C 80 % 1004,1 hPa 0,0 l/m 0 min 0 min 0 W/m 22,5 km/h (4 Bft) 100,00 %
21.12.2018 21:36 11,3 C 10,6 C 10,0 C 80 % 1004,1 hPa 0,0 l/m 0 min 0 min 0 W/m 25,7 km/h (4 Bft) 100,00 %
21.12.2018 21:38 11,2 C 10,6 C 10,0 C 80 % 1004,1 hPa 0,0 l/m 0 min 0 min 0 W/m 22,5 km/h (4 Bft) 97,87 %
21.12.2018 21:40 11,2 C 10,6 C 9,4 C 80 % 1004,3 hPa 0,0 l/m 0 min 0 min 0 W/m 29,0 km/h (5 Bft) 100,00 %
21.12.2018 21:42 11,2 C 10,6 C 10,0 C 80 % 1004,3 hPa 0,0 l/m 0 min 0 min 0 W/m 25,7 km/h (4 Bft) 100,00 %
21.12.2018 21:44 11,2 C 10,6 C 9,4 C 80 % 1004,2 hPa 0,0 l/m 0 min 0 min 0 W/m 19,3 km/h (3 Bft) 100,00 %
21.12.2018 21:46 11,2 C 10,6 C 10,0 C 80 % 1004,3 hPa 0,0 l/m 0 min 0 min 0 W/m 19,3 km/h (3 Bft) 100,00 %
21.12.2018 21:48 11,2 C 10,6 C 9,4 C 81 % 1004,3 hPa 0,0 l/m 0 min 0 min 0 W/m 22,5 km/h (4 Bft) 100,00 %
21.12.2018 21:50 11,2 C 10,6 C 9,4 C 81 % 1004,4 hPa 0,0 l/m 0 min 0 min 0 W/m 22,5 km/h (4 Bft) 97,87 %
21.12.2018 21:52 11,1 C 10,6 C 9,4 C 81 % 1004,5 hPa 0,0 l/m 0 min 0 min 0 W/m 22,5 km/h (4 Bft) 97,87 %
21.12.2018 21:54 11,1 C 10,6 C 9,4 C 81 % 1004,4 hPa 0,0 l/m 0 min 0 min 0 W/m 35,4 km/h (5 Bft) 93,48 %
21.12.2018 21:56 11,1 C 10,6 C 9,4 C 81 % 1004,4 hPa 0,0 l/m 0 min 0 min 0 W/m 19,3 km/h (3 Bft) 97,87 %
21.12.2018 21:58 11,1 C 10,6 C 9,4 C 81 % 1004,4 hPa 0,0 l/m 0 min 0 min 0 W/m 25,7 km/h (4 Bft) 97,87 %
21.12.2018 22:00 11,1 C 10,6 C 9,4 C 81 % 1004,4 hPa 0,0 l/m 0 min 0 min 0 W/m 22,5 km/h (4 Bft) 97,87 %
21.12.2018 22:02 11,1 C 10,6 C 9,4 C 81 % 1004,5 hPa 0,0 l/m 0 min 0 min 0 W/m 12,9 km/h (3 Bft) 97,87 %
21.12.2018 22:04 11,1 C 10,6 C 9,4 C 81 % 1004,5 hPa 0,0 l/m 0 min 0 min 0 W/m 19,3 km/h (3 Bft) 97,87 %
21.12.2018 22:06 11,1 C 10,6 C 9,4 C 81 % 1004,5 hPa 0,0 l/m 0 min 0 min 0 W/m 22,5 km/h (4 Bft) 97,83 %
21.12.2018 22:08 11,1 C 10,6 C 9,4 C 81 % 1004,5 hPa 0,0 l/m 0 min 0 min 0 W/m 19,3 km/h (3 Bft) 95,74 %
21.12.2018 22:10 11,0 C 10,6 C 9,4 C 81 % 1004,6 hPa 0,0 l/m 0 min 0 min 0 W/m 22,5 km/h (4 Bft) 97,87 %
21.12.2018 22:12 11,0 C 10,6 C 9,4 C 81 % 1004,5 hPa 0,0 l/m 0 min 0 min 0 W/m 16,1 km/h (3 Bft) 95,74 %
21.12.2018 22:14 11,0 C 10,6 C 9,4 C 81 % 1004,6 hPa 0,0 l/m 0 min 0 min 0 W/m 12,9 km/h (3 Bft) 97,87 %
21.12.2018 22:16 11,0 C 10,6 C 9,4 C 82 % 1004,6 hPa 0,0 l/m 0 min 0 min 0 W/m 16,1 km/h (3 Bft) 97,87 %
21.12.2018 22:18 11,0 C 10,6 C 9,4 C 82 % 1004,6 hPa 0,0 l/m 0 min 0 min 0 W/m 19,3 km/h (3 Bft) 95,65 %
21.12.2018 22:20 10,9 C 10,6 C 9,4 C 82 % 1004,6 hPa 0,0 l/m 0 min 0 min 0 W/m 22,5 km/h (4 Bft) 95,74 %
21.12.2018 22:22 10,9 C 10,6 C 9,4 C 82 % 1004,6 hPa 0,0 l/m 0 min 0 min 0 W/m 22,5 km/h (4 Bft) 91,49 %
21.12.2018 22:24 10,9 C 10,6 C 9,4 C 82 % 1004,6 hPa 0,0 l/m 0 min 0 min 0 W/m 16,1 km/h (3 Bft) 95,74 %
21.12.2018 22:26 10,9 C 10,6 C 9,4 C 82 % 1004,7 hPa 0,0 l/m 0 min 0 min 0 W/m 16,1 km/h (3 Bft) 91,49 %
21.12.2018 22:28 10,9 C 10,6 C 9,4 C 82 % 1004,7 hPa 0,0 l/m 0 min 0 min 0 W/m 22,5 km/h (4 Bft) 91,49 %
21.12.2018 22:30 10,9 C 10,6 C 9,4 C 83 % 1004,7 hPa 0,0 l/m 0 min 0 min 0 W/m 25,7 km/h (4 Bft) 91,30 %
21.12.2018 22:32 10,9 C 10,6 C 9,4 C 83 % 1004,8 hPa 0,0 l/m 0 min 0 min 0 W/m 16,1 km/h (3 Bft) 95,74 %
21.12.2018 22:34 10,9 C 10,6 C 9,4 C 83 % 1004,8 hPa 0,0 l/m 0 min 0 min 0 W/m 12,9 km/h (3 Bft) 95,74 %
21.12.2018 22:36 10,9 C 10,6 C 9,4 C 83 % 1004,8 hPa 0,0 l/m 0 min 0 min 0 W/m 22,5 km/h (4 Bft) 97,87 %
21.12.2018 22:38 10,9 C 10,6 C 9,4 C 83 % 1004,9 hPa 0,0 l/m 0 min 0 min 0 W/m 16,1 km/h (3 Bft) 93,62 %
21.12.2018 22:40 10,9 C 10,6 C 9,4 C 83 % 1004,9 hPa 0,0 l/m 0 min 0 min 0 W/m 22,5 km/h (4 Bft) 95,74 %
21.12.2018 22:42 10,9 C 10,0 C 9,4 C 83 % 1005,1 hPa 0,0 l/m 0 min 0 min 0 W/m 19,3 km/h (3 Bft) 97,83 %
21.12.2018 22:44 10,9 C 10,0 C 9,4 C 83 % 1004,9 hPa 0,0 l/m 0 min 0 min 0 W/m 19,3 km/h (3 Bft) 95,74 %
21.12.2018 22:46 10,9 C 10,0 C 9,4 C 83 % 1005,0 hPa 0,0 l/m 0 min 0 min 0 W/m 16,1 km/h (3 Bft) 93,62 %
21.12.2018 22:48 10,9 C 10,0 C 9,4 C 83 % 1005,1 hPa 0,0 l/m 0 min 0 min 0 W/m 29,0 km/h (5 Bft) 95,74 %
21.12.2018 22:50 10,9 C 10,0 C 9,4 C 83 % 1005,1 hPa 0,0 l/m 0 min 0 min 0 W/m 25,7 km/h (4 Bft) 95,74 %
21.12.2018 22:52 10,9 C 10,0 C 9,4 C 83 % 1005,0 hPa 0,0 l/m 0 min 0 min 0 W/m 19,3 km/h (3 Bft) 95,65 %
21.12.2018 22:54 10,9 C 10,0 C 9,4 C 83 % 1005,1 hPa 0,0 l/m 0 min 0 min 0 W/m 16,1 km/h (3 Bft) 95,74 %
21.12.2018 22:56 10,9 C 10,0 C 9,4 C 83 % 1005,2 hPa 0,0 l/m 0 min 0 min 0 W/m 22,5 km/h (4 Bft) 95,74 %
21.12.2018 22:58 10,9 C 10,6 C 9,4 C 83 % 1005,4 hPa 0,0 l/m 0 min 0 min 0 W/m 29,0 km/h (5 Bft) 91,49 %
21.12.2018 23:00 10,8 C 10,6 C 9,4 C 83 % 1005,2 hPa 0,0 l/m 0 min 0 min 0 W/m 22,5 km/h (4 Bft) 95,74 %
21.12.2018 23:02 10,8 C 10,0 C 9,4 C 83 % 1005,2 hPa 0,0 l/m 0 min 0 min 0 W/m 25,7 km/h (4 Bft) 97,87 %
21.12.2018 23:04 10,8 C 10,0 C 9,4 C 83 % 1005,3 hPa 0,0 l/m 0 min 0 min 0 W/m 19,3 km/h (3 Bft) 95,65 %
21.12.2018 23:06 10,8 C 10,0 C 9,4 C 83 % 1005,2 hPa 0,0 l/m 0 min 0 min 0 W/m 19,3 km/h (3 Bft) 93,62 %
21.12.2018 23:08 10,8 C 10,0 C 9,4 C 83 % 1005,3 hPa 0,0 l/m 0 min 0 min 0 W/m 16,1 km/h (3 Bft) 95,74 %
21.12.2018 23:10 10,8 C 10,0 C 9,4 C 83 % 1005,1 hPa 0,0 l/m 0 min 0 min 0 W/m 16,1 km/h (3 Bft) 95,74 %
21.12.2018 23:12 10,8 C 10,0 C 9,4 C 83 % 1005,1 hPa 0,0 l/m 0 min 0 min 0 W/m 16,1 km/h (3 Bft) 93,62 %
21.12.2018 23:14 10,8 C 10,0 C 9,4 C 84 % 1005,2 hPa 0,0 l/m 0 min 0 min 0 W/m 25,7 km/h (4 Bft) 93,62 %
21.12.2018 23:16 10,8 C 10,0 C 9,4 C 84 % 1005,3 hPa 0,0 l/m 0 min 0 min 0 W/m 22,5 km/h (4 Bft) 97,83 %
21.12.2018 23:18 10,8 C 10,0 C 9,4 C 84 % 1005,3 hPa 0,0 l/m 0 min 0 min 0 W/m 16,1 km/h (3 Bft) 97,87 %
21.12.2018 23:20 10,7 C 10,0 C 9,4 C 84 % 1005,4 hPa 0,0 l/m 0 min 0 min 0 W/m 19,3 km/h (3 Bft) 95,74 %
21.12.2018 23:22 10,7 C 10,0 C 9,4 C 84 % 1005,2 hPa 0,0 l/m 0 min 0 min 0 W/m 12,9 km/h (3 Bft) 97,87 %
21.12.2018 23:24 10,7 C 10,0 C 9,4 C 84 % 1005,3 hPa 0,0 l/m 0 min 0 min 0 W/m 22,5 km/h (4 Bft) 97,87 %
21.12.2018 23:26 10,7 C 10,0 C 8,9 C 84 % 1005,2 hPa 0,0 l/m 0 min 0 min 0 W/m 16,1 km/h (3 Bft) 95,74 %
21.12.2018 23:28 10,7 C 10,0 C 8,9 C 84 % 1005,2 hPa 0,0 l/m 0 min 0 min 0 W/m 16,1 km/h (3 Bft) 97,83 %
21.12.2018 23:30 10,6 C 10,0 C 8,9 C 84 % 1005,4 hPa 0,0 l/m 0 min 0 min 0 W/m 22,5 km/h (4 Bft) 97,87 %
21.12.2018 23:32 10,6 C 10,0 C 8,9 C 84 % 1005,4 hPa 0,0 l/m 0 min 0 min 0 W/m 19,3 km/h (3 Bft) 100,00 %
21.12.2018 23:34 10,6 C 10,0 C 8,9 C 84 % 1005,5 hPa 0,0 l/m 0 min 0 min 0 W/m 16,1 km/h (3 Bft) 100,00 %
21.12.2018 23:36 10,6 C 10,0 C 8,9 C 85 % 1005,4 hPa 0,0 l/m 0 min 0 min 0 W/m 29,0 km/h (5 Bft) 100,00 %
21.12.2018 23:38 10,5 C 10,0 C 8,9 C 85 % 1005,4 hPa 0,0 l/m 0 min 0 min 0 W/m 16,1 km/h (3 Bft) 100,00 %
21.12.2018 23:40 10,5 C 10,0 C 8,9 C 85 % 1005,4 hPa 0,0 l/m 0 min 0 min 0 W/m 16,1 km/h (3 Bft) 97,83 %
21.12.2018 23:42 10,5 C 10,0 C 8,9 C 85 % 1005,4 hPa 0,0 l/m 0 min 0 min 0 W/m 22,5 km/h (4 Bft) 100,00 %
21.12.2018 23:44 10,5 C 10,0 C 8,9 C 85 % 1005,5 hPa 0,0 l/m 0 min 0 min 0 W/m 16,1 km/h (3 Bft) 100,00 %
21.12.2018 23:46 10,4 C 9,4 C 8,9 C 85 % 1005,5 hPa 0,0 l/m 0 min 0 min 0 W/m 19,3 km/h (3 Bft) 100,00 %
21.12.2018 23:48 10,4 C 9,4 C 8,9 C 85 % 1005,5 hPa 0,0 l/m 0 min 0 min 0 W/m 16,1 km/h (3 Bft) 100,00 %
21.12.2018 23:50 10,4 C 9,4 C 8,9 C 85 % 1005,4 hPa 0,0 l/m 0 min 0 min 0 W/m 16,1 km/h (3 Bft) 100,00 %
21.12.2018 23:52 10,4 C 9,4 C 8,9 C 85 % 1005,6 hPa 0,0 l/m 0 min 0 min 0 W/m 22,5 km/h (4 Bft) 100,00 %
21.12.2018 23:54 10,4 C 10,0 C 8,9 C 85 % 1005,6 hPa 0,0 l/m 0 min 0 min 0 W/m 19,3 km/h (3 Bft) 100,00 %
21.12.2018 23:56 10,3 C 9,4 C 8,9 C 85 % 1005,5 hPa 0,0 l/m 0 min 0 min 0 W/m 12,9 km/h (3 Bft) 97,87 %
21.12.2018 23:58 10,3 C 9,4 C 8,9 C 85 % 1005,4 hPa 0,0 l/m 0 min 0 min 0 W/m 12,9 km/h (3 Bft) 100,00 %
_ Min-Zeit 06:28 05:38 05:42 16:04 12:56 - - - - 05:48 03:08
Minimum _ 7,4 C 6,1 C 5,6 C 79 % 996,6 hPa - - - - 0,0 km/h (0 Bft) 91,30 %
_ Max-Zeit 14:52 14:26 13:46 10:54 00:00 05:40 00:00 06:08 13:12 12:58 00:14
Maximum _ 13,1 C 12,8 C 11,7 C 99 % 1009,9 hPa 0,2 l/m 0 min 4 min 88 W/m 54,7 km/h
SW (7 Bft)
100,00 %
Durchschnitt _ 10,0 C 9,4 C 8,6 C 89 % 1002,4 hPa #13,8 l/m #0 min. #7:28 h 38 W/m 22,7 km/h (4 Bft) 97,42 %
© 2018 W. Hausmann